GFSNE_250_spd_000.txt.gz
Wind_Speed
90 88 91 91 90 89 88 88 87 86 85 88 87 88 89 93 97 105 114 117 118 120 124 127 124 120 116 113 112 112 116 120 125 123 122 117 115 111
89 88 88 90 91 92 89 86 85 84 81 84 87 87 87 90 90 94 102 108 113 118 120 124 128 129 126 122 119 118 117 117 124 126 127 124 122 113
80 78 77 79 82 84 85 85 84 81 78 83 85 86 89 89 89 92 93 95 100 108 116 119 120 125 129 129 128 125 123 122 121 126 129 132 130 122
72 71 68 67 69 73 75 77 80 79 75 79 82 86 90 91 93 92 92 92 95 98 101 107 114 118 122 127 131 133 132 129 126 126 124 131 135 129
66 63 62 60 61 61 64 67 71 73 72 73 80 84 87 91 94 94 93 92 92 92 92 96 99 108 113 119 126 129 132 137 135 132 131 125 134 135
57 55 54 54 55 55 56 59 61 64 66 68 75 81 83 88 92 95 95 92 90 89 88 88 90 92 102 112 117 118 124 128 135 139 136 134 129 135
54 52 50 49 49 49 51 53 55 58 60 62 68 76 81 84 86 93 94 94 91 90 88 86 84 86 90 98 105 111 115 120 127 131 138 138 134 133
50 48 47 47 47 47 48 50 51 53 55 55 60 68 74 73 77 83 86 89 88 88 87 86 82 81 85 91 96 99 104 111 119 126 130 133 138 137
42 42 41 41 43 44 46 47 47 48 50 50 55 61 64 65 68 74 77 81 81 81 80 82 77 76 80 84 88 93 98 105 110 119 124 129 131 138
40 38 39 40 39 39 41 42 43 45 45 49 52 56 60 61 63 67 69 72 73 75 75 76 75 75 74 77 82 88 93 96 102 108 115 122 128 132
37 36 37 38 36 35 36 36 36 37 41 43 46 48 50 51 54 58 63 63 65 67 69 68 69 69 69 74 80 84 90 92 97 102 106 113 119 124
33 36 36 33 31 31 32 32 32 34 36 38 41 44 46 46 49 53 55 57 59 61 64 62 63 63 63 67 73 79 85 87 92 97 100 103 111 116
32 34 31 30 28 30 29 29 30 32 33 35 39 41 43 45 46 49 51 53 55 59 60 58 61 61 61 65 68 73 79 84 87 90 93 98 101 107
32 31 29 28 27 27 28 28 29 28 30 33 35 36 38 40 41 43 45 47 52 55 53 53 56 57 59 61 65 69 74 78 82 87 89 91 94 100
29 27 26 26 27 26 26 27 26 26 28 30 31 32 32 34 36 38 41 44 47 51 50 49 50 53 55 59 61 66 72 77 79 81 85 87 90 94
25 24 24 24 25 24 25 24 25 25 26 28 28 27 27 28 29 30 33 37 42 45 45 47 47 49 52 55 58 63 69 75 77 78 80 82 86 91
21 21 20 21 23 23 23 23 24 24 25 25 24 24 24 25 26 27 30 32 36 40 42 43 45 43 46 51 55 60 66 70 76 77 78 80 84 89
17 17 17 19 21 21 21 22 23 23 23 21 22 22 23 24 25 27 27 28 32 35 37 39 41 42 40 44 51 55 60 66 70 75 77 78 82 88
16 15 15 17 19 20 21 22 23 22 21 20 21 22 22 23 25 25 27 28 29 30 32 34 36 38 39 41 46 51 56 61 66 70 74 77 79 82
17 16 17 18 19 21 22 22 22 21 21 21 21 22 22 24 23 23 25 27 27 28 28 30 30 34 37 38 41 48 53 58 63 67 71 75 78 80
16 16 17 19 20 21 22 22 22 22 22 22 21 21 20 20 20 21 21 25 27 28 26 26 28 31 34 36 38 43 49 55 59 64 67 72 76 79
17 17 18 19 20 21 22 22 23 23 23 22 22 22 21 21 21 20 19 21 23 23 27 27 26 29 31 33 37 40 44 50 55 60 64 67 71 75
17 17 18 20 21 23 23 23 24 24 23 23 23 23 22 21 21 19 18 18 20 22 22 23 26 26 29 31 34 37 41 45 50 55 60 63 67 71

GFSNE_250_spd_003.txt.gz
Wind_Speed
98 98 97 95 92 93 86 88 89 91 91 92 96 93 87 87 94 94 95 102 109 115 120 126 131 128 124 119 116 112 112 115 122 121 120 116 110 107
97 94 93 88 84 84 83 84 87 87 87 89 92 90 86 82 85 90 90 95 103 111 115 123 130 134 133 129 125 121 116 116 117 125 124 123 120 116
89 83 80 77 73 74 74 75 79 80 80 83 87 88 87 85 83 83 86 90 96 105 114 118 124 131 136 135 133 130 127 121 120 119 125 127 127 126
80 76 72 69 67 66 66 68 71 74 74 75 78 82 84 86 87 82 85 89 91 99 108 114 121 126 133 138 137 136 134 130 125 123 122 126 126 129
71 68 65 61 60 59 60 60 62 66 67 69 72 75 78 84 86 85 86 87 86 89 100 110 114 119 127 131 133 137 138 137 132 130 127 125 129 127
66 63 60 57 57 56 56 56 56 58 60 62 66 69 72 77 81 84 86 85 84 85 88 99 107 110 114 120 128 130 134 138 138 136 134 132 130 133
62 58 56 55 55 54 54 55 55 53 52 55 62 65 66 70 74 78 81 82 82 83 80 84 92 99 105 108 112 117 126 130 136 140 139 137 133 132
55 52 49 47 49 49 49 51 52 51 49 50 57 61 62 62 64 70 73 76 79 79 78 77 80 85 93 97 102 105 112 120 128 134 140 142 140 137
48 43 41 40 41 43 44 44 46 46 47 47 52 55 54 56 59 64 67 69 73 76 74 73 74 77 84 87 89 93 102 108 115 125 133 140 144 144
42 38 37 38 39 40 38 40 40 40 40 43 49 52 52 52 54 59 61 63 66 69 71 71 73 75 77 80 84 88 92 101 108 111 117 125 135 142
37 36 35 37 34 34 32 32 33 33 36 40 44 48 49 50 51 55 59 58 61 63 64 66 71 74 73 76 81 85 90 95 101 106 109 112 119 128
35 36 34 33 32 32 31 30 30 32 33 35 39 42 44 45 48 52 52 54 57 60 64 62 66 66 68 72 74 78 86 92 99 104 105 108 111 114
35 36 33 30 30 31 30 29 28 29 30 32 34 37 39 40 41 43 46 49 51 56 55 54 60 64 67 70 71 74 79 85 92 97 102 106 108 109
32 32 29 27 29 29 28 27 27 27 28 30 33 36 38 39 40 41 43 46 51 54 52 53 57 60 62 65 68 71 76 82 87 92 95 98 102 104
28 28 25 25 26 26 26 26 25 26 28 30 32 34 35 36 36 37 38 42 45 48 49 51 56 59 60 62 64 67 72 77 81 87 91 94 97 100
25 24 23 23 23 23 23 23 24 25 27 27 27 28 30 32 33 34 36 39 42 44 45 47 50 51 53 58 61 65 69 74 78 83 86 89 93 94
21 21 21 21 22 22 21 22 22 24 24 23 23 26 28 29 29 30 32 34 36 38 40 42 45 47 46 49 54 59 63 69 75 80 83 84 86 89
19 18 18 19 20 20 20 21 21 21 22 22 23 25 25 26 25 27 30 31 32 33 34 38 41 42 41 41 46 52 57 62 68 74 80 82 84 85
18 18 18 18 17 18 18 20 20 20 21 22 22 23 24 23 24 26 27 28 30 31 31 31 36 38 40 39 39 44 52 59 63 67 74 80 83 83
17 17 18 18 18 18 19 20 21 22 22 22 22 22 23 24 24 25 26 27 28 30 30 29 31 33 35 36 37 40 47 54 59 62 67 74 78 80
17 17 18 19 20 20 21 22 23 23 23 23 22 22 23 24 24 23 24 25 25 25 29 30 29 29 32 33 36 39 43 49 55 59 63 67 72 76
19 18 18 19 21 22 23 23 23 24 24 23 22 23 23 23 23 24 25 24 22 24 27 29 29 28 28 30 32 35 38 44 50 54 58 62 66 70
20 20 20 20 21 22 23 23 24 25 25 24 24 24 24 24 24 24 24 24 22 22 23 28 28 28 28 29 29 31 35 39 44 49 55 58 61 65

GFSNE_250_spd_006.txt.gz
Wind_Speed
107 104 101 99 95 93 91 87 82 80 81 85 86 88 92 95 93 89 90 95 106 112 113 114 115 120 126 127 123 120 116 112 115 117 112 111 108 107
101 98 95 90 86 83 78 76 73 71 71 76 81 84 87 93 93 84 81 84 94 105 109 110 113 117 123 128 129 127 124 121 115 117 121 117 115 112
90 84 79 75 72 70 68 67 65 64 64 70 73 78 83 88 92 86 77 78 90 100 106 105 109 116 121 125 131 133 130 127 123 121 120 124 123 118
81 78 74 70 67 64 62 60 59 58 57 63 69 73 76 81 84 84 78 79 83 88 97 104 107 113 119 125 131 136 137 134 131 127 126 121 125 126
75 73 71 66 62 59 57 56 54 54 53 56 63 66 71 75 75 77 75 76 82 88 93 93 102 108 117 125 129 136 140 140 136 133 130 127 124 125
68 65 65 64 60 56 54 53 52 52 50 51 55 60 64 67 68 70 71 72 78 88 93 90 93 101 107 120 126 130 138 140 141 140 138 135 132 129
64 61 58 58 57 53 49 49 49 47 49 51 53 56 57 58 60 62 65 68 71 78 86 91 90 94 100 110 122 128 133 137 139 139 142 141 138 134
59 55 52 50 49 48 46 45 46 45 46 48 51 52 54 52 52 54 57 60 64 69 76 85 89 89 94 101 110 119 125 130 133 139 141 143 144 141
52 50 48 47 45 44 45 43 43 43 44 45 47 48 48 49 47 49 53 55 57 62 67 76 84 87 91 93 96 106 114 119 125 130 135 140 143 145
44 43 46 46 41 39 42 38 38 39 40 41 42 42 45 44 47 47 48 49 52 56 59 65 74 81 84 86 89 93 101 107 111 118 126 133 139 142
44 42 44 44 38 36 36 33 32 33 36 37 37 37 38 41 44 48 49 47 50 53 56 59 67 72 76 81 85 89 93 95 98 104 115 121 128 134
40 39 38 37 35 34 33 30 29 31 33 33 33 34 35 37 39 42 44 45 45 50 52 52 60 63 69 76 81 85 87 90 93 96 100 109 113 120
35 34 31 30 30 31 31 29 28 27 28 30 30 31 31 32 34 37 40 40 44 49 46 50 59 61 65 70 75 81 83 85 89 94 98 101 104 107
31 28 26 25 25 26 26 27 26 25 26 27 28 27 28 29 30 33 34 36 40 42 43 47 55 57 61 66 70 75 81 86 88 92 96 98 101 102
28 26 24 23 22 21 22 24 24 24 24 26 26 27 27 29 30 31 33 35 38 39 40 44 48 52 55 60 66 70 74 79 85 90 94 97 99 100
25 23 21 20 20 19 20 21 22 22 24 25 26 27 28 29 30 30 31 33 34 36 39 43 47 49 52 54 57 61 67 73 78 83 89 94 97 100
23 21 19 18 18 18 19 19 20 22 23 24 24 26 27 27 27 27 29 31 32 33 35 38 42 45 46 49 54 57 59 64 71 78 82 86 91 97
21 19 19 18 17 16 17 18 20 21 22 22 22 23 24 25 26 27 28 29 30 30 31 32 35 39 42 44 46 49 54 59 65 70 76 81 84 89
20 18 18 18 17 17 16 17 19 20 20 21 21 21 23 24 25 27 27 27 28 29 29 30 30 32 36 38 40 42 48 53 59 65 70 74 77 80
19 18 18 18 18 18 18 19 19 20 20 21 21 22 23 24 24 26 25 26 27 28 29 29 30 28 29 33 37 38 41 46 52 59 64 68 71 74
20 20 19 20 20 20 20 21 21 22 22 22 23 24 24 24 24 24 24 24 26 25 27 30 31 29 28 29 33 37 39 40 45 51 58 62 65 68
21 21 21 21 21 22 22 23 23 24 24 24 24 25 25 26 25 25 26 25 25 25 25 27 30 29 28 29 30 34 37 39 42 46 52 56 59 62
23 22 22 23 23 24 24 25 25 25 25 26 26 26 26 26 25 26 26 26 26 26 26 27 28 30 29 29 29 31 33 37 39 42 46 51 54 56

GFSNE_250_spd_009.txt.gz
Wind_Speed
100 95 90 87 85 85 83 80 76 77 79 86 88 89 89 90 95 97 100 102 108 115 123 132 134 124 123 123 125 124 121 118 114 121 118 118 112 108
94 88 84 80 77 74 71 68 65 62 65 72 76 81 85 86 90 95 97 101 107 102 107 119 132 129 126 124 123 125 126 124 122 118 122 123 121 117
86 81 78 74 70 68 64 62 60 57 56 67 67 71 76 79 85 92 94 98 98 98 96 100 118 127 127 121 126 125 126 130 129 126 122 124 126 123
77 75 71 68 67 63 60 58 57 56 53 61 64 65 68 72 76 84 90 95 96 98 90 95 103 113 117 120 126 130 129 131 135 133 131 125 125 130
73 70 67 63 62 60 56 53 52 53 52 55 61 61 63 66 71 74 81 86 89 90 85 90 101 104 106 109 118 125 131 131 132 137 136 133 129 127
69 66 62 58 56 56 54 54 50 50 51 53 57 57 60 62 64 67 71 76 78 78 77 82 91 99 102 105 109 116 126 130 132 135 141 140 136 133
64 62 61 57 54 51 51 51 46 44 48 49 54 55 56 58 58 58 61 66 69 70 72 74 85 97 102 103 108 114 120 127 129 133 138 142 142 138
59 59 57 54 50 45 43 44 42 39 41 42 46 49 50 52 53 53 55 56 57 62 66 70 78 92 100 102 104 110 114 119 126 131 136 141 142 144
53 50 49 47 45 42 39 39 36 35 37 37 38 40 41 42 45 49 51 52 54 58 63 69 75 84 93 99 100 102 106 111 118 125 131 136 139 139
48 47 47 45 40 40 40 37 33 35 36 34 35 35 38 38 41 42 45 48 52 55 56 63 69 78 84 90 96 99 100 104 111 118 124 129 133 137
43 42 41 39 38 37 36 33 32 32 33 32 32 33 35 35 38 41 42 46 50 52 52 58 64 70 76 83 90 95 97 100 104 109 116 124 129 133
39 37 35 34 33 32 30 29 31 30 30 31 29 30 32 33 36 38 41 43 46 48 43 52 59 63 69 77 83 88 92 96 98 102 106 114 121 126
35 32 31 29 27 26 26 26 27 27 28 28 27 27 27 29 32 35 37 40 43 43 45 52 55 57 63 68 74 80 85 90 95 99 102 106 111 114
33 31 28 26 24 22 22 22 22 24 26 26 26 26 26 27 29 31 32 35 37 39 45 49 51 54 58 63 66 70 77 83 87 93 97 102 105 105
31 28 25 22 21 21 20 20 21 23 23 24 24 25 25 25 26 27 28 30 31 34 39 44 48 52 54 58 61 64 69 75 80 85 90 95 99 100
29 26 23 21 19 18 18 19 19 20 20 22 23 24 23 24 24 25 26 28 30 32 36 39 40 43 48 54 57 58 63 69 74 79 82 86 91 95
26 24 21 19 18 16 17 17 18 19 20 21 22 23 23 24 24 26 28 29 31 33 36 39 40 42 43 46 51 55 59 63 68 72 77 82 86 89
24 22 20 17 16 15 16 16 17 18 19 20 21 23 24 25 25 26 26 27 29 30 33 35 37 39 41 43 46 50 54 58 62 67 70 75 81 85
24 21 19 17 15 15 16 16 17 18 19 20 22 24 25 25 25 24 25 27 28 29 31 31 32 35 38 40 42 46 49 53 58 61 65 69 72 77
25 22 20 18 17 16 16 17 18 19 20 21 22 23 24 25 25 25 25 26 27 28 29 30 31 31 31 32 37 39 43 47 52 57 62 66 68 69
26 24 22 20 19 19 18 19 20 21 22 23 23 24 25 25 26 27 26 26 27 29 29 29 30 30 30 30 33 37 39 41 45 50 57 61 65 68
26 25 24 22 22 21 21 21 22 24 25 25 26 26 26 27 28 28 27 27 28 29 29 29 30 30 30 31 32 33 37 38 40 44 49 55 61 65
27 25 25 24 24 24 23 23 24 25 26 27 27 27 27 28 28 29 29 28 29 30 30 31 31 32 31 31 31 31 33 35 37 40 44 47 52 57

GFSNE_250_spd_012.txt.gz
Wind_Speed
98 92 87 84 82 81 79 77 75 72 75 89 97 98 96 96 99 100 103 106 111 118 130 131 131 130 132 130 126 123 124 122 118 115 116 114 113 107
89 83 79 75 73 71 69 68 69 65 66 77 90 92 93 95 97 96 98 102 106 112 119 121 122 125 128 134 134 130 130 131 126 121 117 119 119 118
85 80 76 73 70 66 63 61 60 59 57 68 77 80 82 85 88 90 93 97 101 107 115 118 118 117 118 127 134 135 136 137 133 127 124 121 123 123
77 74 72 68 65 62 60 60 58 56 53 61 69 72 73 74 79 82 85 89 95 100 108 116 115 115 112 118 124 131 134 136 137 135 133 128 125 127
72 68 65 62 60 57 55 55 55 53 49 53 62 63 65 67 72 75 77 80 88 95 100 109 114 112 113 113 117 122 130 132 135 139 137 136 132 129
66 63 60 57 55 53 52 52 51 50 49 47 56 57 56 60 63 67 71 73 80 86 90 98 106 109 112 112 107 108 116 125 128 137 136 139 139 138
62 58 55 53 49 47 47 47 47 46 45 45 49 54 55 55 56 59 64 67 74 76 79 85 95 101 105 107 104 104 106 111 122 131 136 141 142 144
55 54 52 48 46 43 42 43 44 44 42 40 44 49 50 48 48 52 59 62 67 71 73 78 83 88 90 93 99 102 104 106 111 127 136 138 142 143
53 52 52 48 44 43 39 40 42 42 38 38 43 46 43 42 43 49 53 55 61 63 67 70 74 79 82 83 90 98 103 106 109 116 131 135 137 140
49 48 47 45 43 41 38 35 35 36 35 38 41 36 36 37 41 45 47 51 55 57 60 63 65 72 74 78 82 93 104 110 113 112 117 128 133 137
43 43 43 40 38 36 33 31 31 31 32 34 32 33 34 37 39 41 43 46 50 52 55 58 59 65 68 73 80 89 100 110 113 112 115 119 127 132
42 39 36 35 33 31 29 27 27 26 27 28 29 30 29 30 34 36 38 41 44 46 49 57 56 59 64 70 77 84 93 101 107 107 108 113 117 123
39 35 32 31 29 27 25 24 23 21 22 24 25 26 26 28 29 30 33 36 38 40 49 56 57 58 61 65 71 77 85 92 96 101 102 103 109 114
37 34 30 28 26 23 22 21 20 19 20 22 23 24 25 25 26 28 29 31 34 40 46 49 52 54 57 60 63 68 76 82 87 91 93 95 100 103
34 31 28 26 23 21 19 18 17 18 18 19 21 23 23 23 24 26 27 29 33 37 40 42 46 51 54 57 57 61 67 74 79 83 84 86 90 95
31 28 25 24 22 20 18 17 15 16 17 18 20 21 22 23 24 24 26 29 32 35 38 40 43 46 50 53 56 57 61 66 70 74 78 80 82 85
29 27 24 22 20 19 18 16 15 14 16 18 19 19 20 21 23 24 26 28 31 33 35 38 40 43 46 49 52 53 57 60 64 67 71 74 76 78
27 25 23 22 20 18 18 17 15 14 15 16 17 19 20 21 22 23 25 27 29 31 33 34 36 39 42 44 46 48 51 55 60 63 65 68 69 71
26 24 23 21 20 19 18 18 17 16 16 18 18 19 20 20 21 22 24 27 28 31 32 34 36 38 41 43 44 46 47 50 53 58 62 63 65 66
26 24 23 22 21 21 20 20 20 19 19 19 20 20 21 21 23 24 25 26 27 29 30 32 33 34 36 38 41 44 46 48 51 53 55 58 61 63
27 25 24 23 22 22 22 22 22 21 22 22 22 22 22 23 24 24 24 26 27 29 30 30 32 33 33 34 36 38 41 44 47 50 52 54 56 59
27 26 25 23 22 23 24 24 24 24 24 24 25 25 25 26 26 26 26 27 27 28 29 31 32 33 33 34 35 36 37 40 43 45 47 50 52 56
28 26 25 24 23 23 24 26 26 26 26 26 27 27 28 28 27 28 28 28 28 28 30 32 33 34 33 32 32 34 35 37 39 42 44 45 48 51

GFSNE_250_spd_015.txt.gz
Wind_Speed
105 98 93 87 83 79 76 73 68 67 71 78 87 93 96 96 98 103 103 105 109 115 120 128 131 131 132 130 127 122 118 113 113 111 107 104 104 107
93 88 83 78 76 73 70 68 65 62 61 69 79 84 89 88 91 96 101 103 105 109 112 117 124 129 131 133 133 128 125 121 119 118 114 111 109 108
84 80 77 73 71 70 67 65 64 61 58 61 72 77 82 80 81 85 91 97 103 107 108 111 116 121 129 135 135 135 131 129 127 125 122 118 116 112
77 74 72 69 67 64 63 62 59 58 54 56 63 73 74 75 73 74 80 85 92 101 106 109 112 115 122 126 131 134 134 134 131 132 130 124 122 120
72 69 67 66 64 62 58 55 55 55 53 52 58 65 67 71 67 68 71 76 80 88 95 105 108 112 114 116 122 127 131 135 136 135 137 134 132 127
68 65 63 62 60 57 56 54 52 51 50 49 54 57 59 64 62 62 66 70 74 78 82 91 98 104 110 110 115 118 121 127 134 138 139 144 141 136
65 63 60 58 55 53 53 52 50 49 48 44 47 52 57 57 57 54 58 64 70 74 75 80 84 93 102 106 109 114 114 117 125 134 139 140 144 143
61 59 57 53 50 47 44 42 43 46 46 42 41 44 49 51 52 51 56 61 66 69 71 75 76 82 88 97 105 111 108 111 114 122 129 132 138 143
56 55 55 51 48 46 43 39 38 40 41 39 38 40 44 44 43 49 53 58 64 64 67 70 73 77 77 86 94 103 106 106 107 107 112 115 124 137
52 52 51 48 44 41 39 36 35 35 35 34 34 36 41 39 40 41 46 53 58 60 63 66 67 70 74 78 83 91 97 102 103 104 103 107 109 121
48 46 44 41 38 36 35 33 31 30 30 29 29 33 37 38 37 40 43 46 49 50 57 62 60 63 68 73 77 81 88 90 93 97 99 103 105 107
44 42 40 39 36 33 31 29 28 26 25 24 24 27 29 32 35 35 38 40 40 43 51 56 53 59 62 66 70 74 76 80 88 91 98 104 104 104
44 41 38 35 32 29 27 25 23 22 21 21 21 23 25 27 29 31 32 34 36 38 47 52 51 56 61 64 66 67 70 75 79 84 91 98 104 107
42 39 35 32 28 26 24 21 19 18 17 17 18 20 22 24 26 27 29 31 36 44 46 44 46 50 55 59 61 62 64 68 74 80 87 94 100 108
40 36 33 29 26 24 22 19 17 17 16 16 16 18 20 22 24 25 26 30 33 34 36 40 44 46 49 54 58 61 64 65 70 76 82 89 94 100
37 34 29 27 25 22 21 18 16 16 16 16 16 16 17 19 21 23 25 27 30 32 33 37 40 42 45 49 54 59 61 63 64 66 72 80 87 93
35 31 28 25 23 21 19 18 16 15 16 15 14 14 15 17 18 20 22 24 26 28 30 32 35 39 41 45 50 53 57 59 61 63 66 70 76 82
33 30 27 25 23 21 18 18 16 15 16 15 14 14 15 16 17 18 20 22 24 26 27 30 32 35 38 42 45 48 51 55 58 60 61 63 65 68
32 29 26 24 22 21 19 18 18 16 16 16 15 15 16 17 18 19 21 23 25 26 27 29 31 33 36 37 39 41 44 48 52 56 58 59 59 61
29 27 25 24 22 21 20 19 18 19 18 17 17 17 18 19 20 22 23 25 26 27 28 30 32 33 35 37 38 40 41 43 45 48 51 53 55 58
29 27 26 24 23 22 21 20 20 20 21 20 20 20 20 21 22 22 23 24 25 27 28 30 31 33 34 35 37 40 40 41 43 45 47 49 50 52
28 27 26 25 24 23 22 21 21 22 23 24 22 22 23 23 25 25 25 25 26 27 28 30 31 32 34 34 36 39 38 39 40 42 45 47 48 49
28 27 26 26 25 24 23 23 23 23 24 25 26 26 25 26 26 27 27 28 28 29 30 32 33 33 33 34 34 35 35 36 37 39 42 44 46 48

GFSNE_250_spd_021.txt.gz
Wind_Speed
104 101 99 96 93 88 82 76 70 69 73 77 74 73 72 72 75 74 78 85 90 96 101 107 114 121 127 133 138 135 128 125 120 115 111 108 103 96
94 91 90 86 83 78 75 71 66 61 61 72 73 69 67 68 69 69 71 76 81 86 91 97 105 114 121 127 133 138 135 130 128 123 120 115 110 105
86 84 80 77 76 73 69 67 64 59 55 68 66 69 67 62 62 65 68 71 75 79 83 88 94 102 111 121 127 134 140 137 134 132 129 125 120 112
79 77 75 72 70 68 65 63 59 55 51 56 63 64 65 63 59 59 65 65 69 74 77 81 86 91 99 110 120 127 131 142 143 138 138 133 126 119
76 73 71 69 67 65 62 59 55 52 48 46 57 57 58 60 58 57 58 61 63 67 72 76 80 83 88 97 109 119 127 132 139 145 141 138 136 126
72 70 68 66 65 63 61 58 55 53 50 45 51 52 52 52 52 54 54 53 57 61 66 71 75 78 82 87 96 106 115 124 132 141 143 145 141 135
70 68 66 63 61 58 55 52 51 50 47 44 46 48 49 49 46 48 50 47 54 59 61 65 69 74 75 80 86 95 106 114 124 132 138 142 141 140
67 66 63 59 57 53 49 47 46 46 44 41 40 40 42 44 44 41 41 44 49 55 58 60 64 69 73 74 78 85 95 105 115 124 132 137 141 142
64 62 60 56 54 52 49 46 44 42 41 39 38 37 37 38 38 37 38 40 44 49 55 56 59 62 67 71 71 78 86 96 105 115 124 130 136 141
61 58 57 54 52 49 46 43 41 39 38 36 36 34 33 34 35 34 35 37 38 43 47 48 54 56 59 65 68 72 78 87 97 105 113 120 124 130
59 56 54 51 47 45 43 40 38 36 35 33 32 31 30 30 30 31 32 34 35 38 40 41 48 51 52 58 65 67 72 79 87 96 105 111 114 121
57 53 49 45 41 40 38 37 35 33 32 31 29 28 28 27 26 26 28 30 33 35 36 39 47 49 47 52 58 63 68 72 78 85 95 101 106 114
56 52 46 42 38 36 36 34 32 30 30 29 27 25 25 24 23 24 26 29 34 36 36 39 41 40 44 49 53 58 64 68 73 78 84 92 100 105
53 49 45 40 36 35 32 31 29 28 27 26 24 22 22 21 20 21 24 27 30 30 31 33 34 37 42 47 52 55 59 64 68 72 78 82 89 95
50 46 43 38 35 34 30 28 27 26 24 23 22 20 20 19 18 20 21 23 24 26 28 31 33 36 40 45 50 55 58 60 65 70 73 77 81 85
46 42 39 38 34 31 31 27 26 24 22 21 19 19 19 18 18 19 20 21 22 25 28 30 32 35 39 43 47 51 55 59 61 64 69 73 76 80
43 40 38 36 35 32 28 27 25 23 21 20 19 17 18 18 18 19 20 21 22 23 25 27 29 32 36 39 42 44 47 52 55 58 62 66 70 74
41 39 37 35 32 29 28 25 24 22 21 20 19 17 17 18 18 18 19 20 22 24 25 26 27 30 32 35 37 39 43 47 51 55 58 61 66 70
40 39 37 34 32 29 26 26 23 22 21 20 19 18 17 18 18 18 19 19 21 23 25 26 27 28 30 33 36 39 41 43 46 49 53 57 60 64
39 37 35 33 32 29 27 25 24 22 22 20 20 20 19 18 18 18 19 20 20 20 23 25 26 27 30 32 34 37 39 41 44 46 48 51 55 58
38 36 34 32 31 29 27 25 23 22 21 21 20 20 21 21 19 20 20 20 21 22 23 24 25 27 29 31 34 35 37 39 41 42 44 48 52 55
36 35 33 32 31 29 26 26 24 22 21 20 21 22 22 23 23 21 22 23 23 23 24 25 26 26 28 30 32 33 35 37 39 41 43 45 47 50
36 35 34 32 31 31 29 26 25 23 22 21 21 23 23 24 25 25 25 25 25 25 26 27 27 28 30 31 33 34 35 36 38 38 40 43 45 48

GFSNE_250_spd_024.txt.gz
Wind_Speed
103 101 100 98 96 92 88 83 77 73 77 79 76 70 67 67 69 71 74 76 80 86 93 101 106 110 114 115 118 125 128 130 129 124 120 115 110 106
101 98 95 92 89 84 79 74 70 65 65 74 71 66 63 62 62 65 70 73 75 79 84 90 96 104 111 114 117 120 124 129 130 131 126 122 117 112
96 92 87 84 80 75 72 68 66 63 57 71 65 64 62 59 56 58 63 68 70 73 77 81 86 93 100 110 117 119 123 127 130 132 131 128 125 120
89 84 80 76 72 70 67 64 61 60 54 61 64 61 60 59 55 55 57 62 66 68 69 77 80 84 89 97 108 118 122 125 129 130 135 133 130 126
82 77 73 70 70 67 63 61 59 57 54 53 58 55 56 56 56 56 53 55 61 64 66 72 72 78 81 87 96 106 118 124 125 131 134 137 137 133
76 72 70 68 66 64 62 60 57 55 52 50 52 50 49 49 52 53 53 52 53 58 63 65 69 74 77 80 86 94 104 116 125 129 134 139 140 139
72 71 68 66 64 62 58 57 55 54 51 48 47 44 43 43 46 48 50 49 48 50 58 63 65 69 73 77 80 86 95 105 116 127 131 136 143 143
71 69 65 63 61 59 57 54 51 50 49 46 45 43 41 39 41 41 44 45 44 47 51 59 60 64 68 73 77 82 87 95 105 116 127 135 142 146
69 65 62 59 58 58 55 51 47 44 43 43 42 39 37 35 36 36 37 39 42 43 49 55 58 60 65 69 73 76 82 88 97 107 118 131 138 144
66 62 59 56 55 55 51 47 43 41 39 37 36 34 33 32 31 33 34 34 36 39 46 51 56 56 58 64 68 72 78 82 89 98 107 122 132 138
62 59 55 54 53 50 47 44 40 39 37 35 32 30 28 28 28 29 30 31 33 37 44 47 51 52 53 57 64 68 73 77 82 90 99 110 121 130
58 55 53 51 48 45 43 40 38 37 35 32 30 27 26 25 25 25 26 28 30 33 37 43 47 48 49 53 60 64 67 71 76 83 91 100 109 118
56 53 52 49 44 41 38 38 37 34 32 30 27 25 24 23 23 22 22 23 25 28 32 39 41 44 49 53 57 60 64 68 71 77 83 90 99 108
53 52 52 47 41 39 36 35 34 32 30 28 26 24 23 22 20 19 19 19 20 24 27 31 36 42 45 46 50 55 60 64 68 73 80 86 92 99
52 51 50 46 41 37 36 34 31 30 27 26 24 22 21 20 18 17 18 17 19 22 25 29 33 36 37 41 47 53 58 61 63 68 75 81 86 91
50 49 47 43 41 37 32 31 30 28 26 24 22 21 20 20 17 16 17 17 19 21 23 28 33 37 42 46 49 53 57 59 61 65 69 74 79 84
48 47 44 40 39 38 35 32 30 28 26 24 21 20 20 20 18 16 16 17 18 20 23 27 31 35 38 40 43 46 51 56 58 60 64 68 72 76
46 45 41 37 36 35 34 32 29 28 26 24 21 19 19 19 17 16 16 18 19 20 22 25 28 32 35 37 39 41 46 50 54 55 57 61 65 70
45 43 39 35 33 33 32 31 29 28 26 24 22 19 18 19 18 17 16 17 19 20 22 24 27 29 32 34 37 40 43 45 48 52 57 59 61 65
44 40 37 34 32 31 30 30 28 26 26 24 22 20 17 18 19 18 17 17 19 20 22 23 25 28 30 32 35 37 40 42 45 48 51 55 59 60
41 39 36 33 32 31 30 28 27 26 25 25 23 20 18 17 19 19 19 18 19 20 22 23 25 27 29 31 33 35 37 40 42 44 47 51 54 58
39 37 35 34 32 31 30 29 27 26 24 24 23 22 20 18 18 20 21 21 21 22 23 24 25 27 29 31 32 34 35 37 40 42 44 47 50 52
38 35 34 33 32 31 30 29 28 25 24 24 23 22 21 20 19 20 22 24 24 24 24 26 28 28 30 32 32 34 36 37 39 41 42 44 47 50

GFSNE_250_spd_027.txt.gz
Wind_Speed
105 108 107 101 98 95 92 89 84 79 79 81 78 74 70 68 68 70 72 71 72 75 79 84 93 99 107 114 117 120 122 125 126 127 122 118 115 113
108 108 102 98 94 92 88 83 78 71 63 76 74 69 68 65 63 64 67 68 71 71 74 78 83 91 99 108 116 118 121 123 124 127 129 124 119 118
106 103 97 94 92 87 82 77 72 68 60 69 68 64 63 61 60 59 61 66 68 72 72 73 76 82 91 99 109 117 119 122 126 127 128 130 124 121
101 96 92 90 86 80 75 72 69 66 60 59 67 61 58 56 57 57 58 60 64 69 71 70 71 78 83 90 99 108 116 120 125 129 132 129 131 126
97 91 88 83 78 74 71 68 65 62 60 56 60 58 54 52 53 53 54 56 57 62 65 67 70 71 77 83 90 98 108 116 120 127 131 133 134 134
92 88 82 77 72 70 67 64 62 60 58 55 55 54 51 49 49 49 50 52 53 54 57 62 66 66 73 77 82 88 97 106 116 124 130 133 134 134
88 82 74 71 69 66 63 61 59 58 55 52 51 49 47 44 45 46 46 47 50 50 49 56 60 64 68 74 76 81 88 97 106 116 125 130 134 135
82 75 70 66 65 62 60 58 55 54 51 48 46 43 42 40 42 42 40 42 44 43 47 50 56 62 64 70 70 75 82 89 97 105 117 126 132 136
75 70 66 63 61 58 55 53 52 48 46 45 43 40 39 38 37 36 37 39 39 38 42 47 54 60 59 63 68 74 79 83 89 97 107 119 130 134
71 67 63 61 58 55 52 51 48 45 42 41 40 39 36 33 32 32 34 35 37 37 39 43 50 55 56 57 66 70 73 78 83 90 98 108 125 133
66 64 61 58 55 53 50 47 43 42 40 39 37 34 32 30 29 28 30 30 33 35 38 41 45 52 54 55 61 64 69 73 78 83 90 99 114 129
63 60 59 55 53 50 47 44 41 39 37 35 33 31 29 28 26 25 25 27 29 33 36 37 41 46 49 49 53 58 64 69 74 79 84 92 104 116
60 57 55 54 51 48 44 41 39 37 34 33 31 29 27 25 23 22 21 23 25 29 32 34 36 38 42 45 47 54 61 66 70 74 80 87 96 106
57 55 53 51 49 47 42 38 37 35 31 29 28 27 25 22 19 19 18 20 21 24 27 30 32 35 39 42 45 52 58 63 65 70 76 82 88 96
55 52 50 49 48 45 41 36 33 32 29 27 26 25 23 20 17 17 16 17 17 19 22 26 29 33 36 41 47 54 55 57 61 66 71 78 85 91
54 50 48 48 47 44 39 36 32 29 28 26 24 23 22 19 16 16 15 16 16 17 20 23 27 31 35 39 44 48 50 53 58 63 69 75 81 87
51 48 46 46 44 42 38 36 33 29 27 25 23 22 22 20 16 15 15 15 16 16 18 21 24 27 33 38 42 45 49 52 55 58 64 69 74 80
49 46 45 44 42 39 37 34 32 30 27 25 23 21 21 20 17 16 15 15 15 16 18 20 22 25 28 30 35 39 43 46 51 54 58 64 70 74
46 44 43 42 40 37 35 34 32 30 27 25 23 21 20 20 18 16 15 15 15 16 18 21 23 24 26 30 33 35 38 41 45 50 55 59 64 69
45 43 41 40 38 35 33 33 31 30 28 24 22 21 19 19 19 17 16 16 16 17 18 21 23 25 26 29 33 35 37 39 42 47 53 57 60 65
42 41 40 39 38 35 32 31 30 29 28 26 22 21 19 18 19 18 17 17 17 17 18 20 23 25 27 29 30 33 35 38 40 43 47 51 55 58
42 40 39 38 37 35 32 30 29 27 26 26 24 21 20 18 18 19 19 19 19 19 19 20 22 24 27 28 29 31 33 36 38 41 43 46 49 54
40 39 38 37 36 35 32 30 28 26 25 24 24 22 20 19 19 20 20 20 20 21 21 21 21 23 25 28 29 31 33 35 37 39 41 44 47 50

GFSNE_250_spd_030.txt.gz
Wind_Speed
108 105 106 109 105 101 96 93 90 83 79 85 81 76 71 70 68 69 70 69 70 68 70 75 78 84 91 98 107 114 123 132 134 131 128 129 126 124
109 108 109 106 102 97 96 93 90 82 71 76 78 72 70 69 67 67 67 67 69 69 68 70 73 78 84 93 101 110 120 127 134 137 134 130 131 130
108 106 105 101 101 98 94 89 83 77 70 70 72 70 67 63 64 63 63 63 64 67 68 68 69 72 78 85 94 104 113 124 130 137 140 137 133 133
108 104 101 100 98 94 89 82 77 73 68 65 68 65 61 58 58 60 60 60 62 63 65 65 66 70 74 78 86 95 106 115 124 131 140 137 137 134
103 99 97 96 93 87 81 76 72 70 67 62 61 62 58 55 54 54 55 56 57 60 59 61 65 68 70 73 80 87 99 106 113 124 133 140 141 139
102 97 94 89 86 81 76 71 68 66 63 61 58 56 55 53 49 50 50 49 54 56 55 55 60 66 68 70 74 80 88 97 104 118 128 135 141 141
96 94 90 82 79 76 71 67 63 61 59 58 56 54 52 49 46 45 43 45 47 48 52 52 53 60 65 67 69 76 80 89 97 105 117 130 137 142
92 89 83 76 75 70 68 64 59 58 58 55 54 49 46 42 41 41 38 39 43 41 46 49 49 53 60 63 65 69 75 79 89 99 106 122 132 138
87 82 77 72 70 65 61 59 58 57 55 54 49 44 41 38 38 37 37 37 39 38 42 44 45 49 54 62 64 66 71 78 84 92 98 108 123 133
82 76 74 67 65 62 59 55 55 54 53 50 45 43 40 38 36 35 35 34 35 36 39 39 42 47 51 57 59 60 65 69 74 83 90 98 107 121
75 73 70 63 61 59 56 54 53 52 49 45 43 41 38 36 33 31 31 31 31 33 36 37 39 43 49 50 53 55 58 64 69 76 85 91 96 107
73 68 66 60 59 56 53 52 51 50 47 41 39 37 35 33 30 29 29 29 29 30 33 34 36 40 43 42 46 49 53 59 65 71 77 86 91 99
69 64 60 60 57 53 51 50 50 48 43 39 35 34 32 30 28 27 26 26 26 27 30 31 33 35 37 38 41 45 52 56 61 68 74 82 88 93
65 61 58 56 54 50 49 48 48 46 41 37 34 33 30 27 24 24 23 22 22 24 27 29 31 33 35 37 38 42 48 52 57 64 70 76 82 89
63 59 57 54 50 48 47 46 46 43 37 35 33 31 29 26 23 21 21 20 20 21 23 25 27 30 33 36 38 42 47 50 53 58 66 71 77 84
60 57 55 52 48 46 45 44 44 40 34 31 30 29 27 25 22 20 19 19 17 18 20 22 24 27 30 33 36 39 44 47 50 54 60 68 74 79
56 54 52 49 46 45 43 43 42 38 33 29 28 27 25 24 21 19 18 18 16 16 18 19 21 24 27 30 33 36 41 45 48 54 59 65 70 76
55 52 50 46 45 44 42 41 41 37 33 30 28 25 24 24 22 19 17 17 16 16 17 18 20 22 26 28 31 35 38 42 45 50 54 58 63 69
52 50 48 45 44 43 41 40 39 35 33 30 27 26 23 23 23 19 17 16 17 17 17 19 19 21 23 28 28 31 35 38 40 44 49 54 60 65
49 47 45 43 44 42 41 39 37 34 32 30 28 25 23 23 22 20 17 16 17 18 18 19 21 22 23 26 29 32 33 34 38 43 47 51 55 61
47 45 43 43 43 40 39 37 35 33 31 29 27 26 22 22 22 21 19 16 16 19 19 20 22 23 25 26 29 32 34 35 38 41 44 47 51 56
45 43 41 42 41 39 38 36 33 31 30 28 26 25 23 21 21 21 20 18 17 18 21 20 21 24 25 26 28 29 31 33 35 37 40 43 47 52
43 42 41 40 39 38 37 34 32 30 29 27 26 25 23 22 21 21 21 20 18 18 19 22 23 24 25 26 28 30 31 33 35 36 38 40 43 47

GFSNE_250_spd_033.txt.gz
Wind_Speed
111 109 107 107 108 108 108 108 104 92 91 90 87 84 79 69 66 65 63 63 63 63 65 69 73 77 81 84 91 102 110 115 125 127 125 127 135 136
105 104 105 106 110 110 110 103 101 98 90 87 85 80 72 66 64 62 61 61 61 61 63 66 67 70 75 80 87 95 105 112 118 130 133 128 132 139
102 101 105 107 107 106 105 101 99 94 88 84 78 70 66 63 63 61 59 59 59 59 60 63 65 68 71 74 81 89 98 108 116 124 136 138 134 138
99 102 103 106 103 103 102 99 95 90 82 74 70 66 62 60 58 58 57 57 57 58 58 61 62 64 69 73 78 83 91 101 114 121 130 139 141 138
103 102 102 99 98 98 96 92 87 82 75 68 66 62 60 56 55 53 53 53 55 55 56 56 59 63 66 71 74 80 86 94 102 116 124 134 143 145
104 99 97 93 92 90 88 84 79 74 68 65 62 60 58 54 52 53 52 49 51 51 53 56 57 58 63 68 71 75 81 88 95 106 119 128 139 147
102 98 92 87 85 81 81 78 71 66 64 62 59 57 56 53 50 47 47 48 44 45 52 52 51 56 59 64 68 70 74 81 88 96 107 119 130 144
95 92 89 83 79 76 74 70 65 62 61 57 55 54 52 51 48 43 43 43 44 41 50 48 47 52 54 59 64 66 69 75 82 88 99 110 122 135
93 89 86 81 76 72 67 64 61 60 57 55 54 52 51 49 45 41 40 39 41 41 44 44 45 47 50 53 59 63 66 71 78 84 92 102 112 125
92 84 80 74 70 67 64 61 57 57 53 51 50 50 48 48 45 41 38 36 38 39 40 38 42 43 46 50 53 59 61 63 71 79 86 96 104 111
86 78 75 70 66 65 62 60 56 54 51 49 48 48 46 44 43 38 37 38 35 37 37 38 38 38 40 45 49 52 54 58 65 74 79 89 96 99
79 73 70 65 63 60 59 57 54 52 49 46 45 45 43 39 40 37 36 35 34 34 35 35 35 33 36 39 42 45 49 55 61 67 75 83 90 92
73 69 67 64 60 58 55 53 52 49 46 45 44 43 39 36 35 34 34 33 32 32 31 32 32 31 33 35 36 41 46 53 58 63 71 78 84 87
71 68 64 62 58 56 53 51 49 46 44 42 43 42 38 34 33 32 31 31 29 29 29 29 29 28 30 30 33 38 42 47 53 60 67 71 77 83
65 63 61 58 55 53 51 49 45 44 42 40 40 40 37 33 31 30 29 29 28 26 26 26 26 26 27 29 31 34 39 43 48 56 63 66 71 78
62 60 58 55 52 50 48 47 43 41 40 38 37 37 35 33 30 27 27 26 26 25 25 25 25 24 25 28 30 33 37 41 46 54 58 62 66 73
60 57 55 52 50 48 46 44 41 39 38 36 35 34 33 31 29 26 25 25 24 24 23 23 23 23 24 27 29 32 35 38 42 48 53 56 60 67
57 55 52 50 47 45 43 40 40 38 37 34 33 32 30 29 27 26 23 23 22 22 22 22 22 22 24 25 28 30 34 36 41 47 52 55 59 66
53 52 50 47 45 43 41 38 37 36 35 33 32 30 28 27 25 25 23 21 21 22 22 21 21 22 24 26 28 29 32 35 38 43 48 52 58 63
51 49 48 46 43 42 40 38 36 34 33 31 30 29 27 25 24 24 23 21 20 21 22 21 22 22 24 26 28 29 32 35 39 42 45 49 52 57
50 48 46 44 41 39 38 37 35 34 31 29 28 27 26 24 23 23 23 20 20 20 21 22 23 23 24 25 27 29 31 34 37 42 46 48 50 54
50 48 45 42 40 37 37 36 34 32 30 29 28 27 26 24 24 23 22 21 19 19 20 23 23 24 24 26 27 28 30 32 36 39 42 45 48 52
49 47 45 42 39 37 35 34 32 30 29 28 27 26 26 24 24 23 22 21 20 20 20 22 24 24 25 27 28 30 31 32 33 36 40 44 46 50

GFSNE_250_spd_036.txt.gz
Wind_Speed
108 113 113 109 105 104 106 108 111 107 101 100 101 101 96 89 82 74 67 62 58 57 58 61 64 68 72 77 83 88 95 107 112 126 131 128 127 131
113 110 104 101 102 105 108 111 109 107 98 93 94 94 89 84 79 69 65 60 56 54 55 57 60 64 67 71 78 85 91 102 112 117 131 136 131 130
103 100 99 101 105 109 109 109 105 100 93 90 90 86 82 78 72 65 61 57 53 51 52 54 57 61 65 69 73 78 87 96 108 116 123 137 139 135
103 101 101 102 105 109 108 105 101 94 89 87 86 81 75 69 65 61 57 53 53 52 52 54 56 58 62 67 71 74 80 89 101 113 120 127 142 142
104 104 106 106 105 103 99 95 93 88 85 82 78 74 70 63 61 57 54 51 51 50 51 54 54 56 59 62 66 72 78 84 92 103 115 123 133 145
106 107 106 106 99 94 92 90 87 82 80 76 72 69 63 59 57 55 52 50 48 47 52 52 52 53 55 58 64 67 73 80 87 95 105 118 128 139
109 108 103 100 97 92 87 85 80 77 75 71 67 63 58 57 53 51 48 51 46 46 49 43 47 49 51 55 59 64 68 75 83 89 98 109 120 131
103 102 100 99 93 87 81 77 74 69 68 65 61 56 56 53 51 48 48 47 45 41 46 38 45 44 45 49 53 58 63 70 76 85 93 101 112 124
100 98 95 91 86 81 77 71 67 64 62 61 59 54 53 49 49 46 45 44 39 42 39 34 43 41 42 44 48 52 58 66 73 80 88 96 104 113
96 91 87 83 77 75 72 69 65 61 57 55 54 54 50 47 46 45 46 41 36 37 38 32 39 36 39 41 44 48 54 62 69 75 83 91 98 103
89 84 81 76 74 72 68 64 61 56 54 52 51 48 46 45 44 43 41 39 35 35 37 33 33 32 34 37 41 46 49 55 62 66 74 83 92 98
83 79 76 72 70 68 66 62 59 56 52 49 48 45 43 42 40 41 39 36 35 33 35 32 32 30 31 35 37 42 47 49 54 60 69 77 85 93
79 75 71 68 65 62 60 58 56 53 50 47 44 41 40 39 38 37 36 35 32 33 31 32 31 28 28 31 32 36 41 45 49 56 62 70 79 87
72 68 65 64 62 60 58 55 52 51 47 44 42 39 37 36 35 34 32 33 31 29 29 30 29 27 27 28 29 31 37 43 47 53 57 63 72 80
69 66 63 60 59 57 55 52 49 47 43 41 40 39 37 34 32 30 30 30 32 29 28 26 26 26 25 25 27 28 33 40 44 49 53 57 64 74
67 62 58 57 54 52 50 48 46 43 41 38 37 37 36 34 31 28 28 29 30 29 26 26 24 24 23 23 24 25 31 37 43 47 50 52 59 68
63 58 54 53 52 50 48 46 43 41 39 37 36 35 34 33 31 28 26 27 27 27 26 23 22 23 23 22 22 24 29 35 39 42 45 48 54 62
60 56 54 51 50 48 46 44 41 38 37 36 35 32 32 31 29 27 25 25 26 24 24 22 21 22 22 22 21 23 28 34 39 41 43 47 52 58
59 56 53 51 49 47 44 42 39 36 35 35 33 31 31 29 27 25 24 23 24 22 22 21 20 21 21 21 21 22 26 31 35 38 40 43 50 57
58 56 54 52 50 47 44 41 37 35 34 34 33 31 29 28 26 25 22 22 23 21 21 21 19 20 20 21 21 22 25 28 34 38 40 43 49 55
56 56 54 52 49 46 43 40 36 34 33 33 32 30 28 27 25 25 22 21 21 21 20 20 19 18 20 21 21 22 24 28 31 35 40 43 47 51
56 55 52 49 46 44 41 38 35 33 32 32 30 29 27 26 25 23 22 20 20 21 20 19 20 18 20 21 22 23 24 26 30 33 36 41 44 49
52 50 49 46 43 42 39 36 34 32 31 31 30 29 27 26 25 22 21 20 19 19 19 19 21 20 20 21 22 22 24 27 30 32 35 37 42 49

GFSNE_250_spd_039.txt.gz
Wind_Speed
96 103 107 111 111 112 111 110 110 109 108 111 106 104 102 100 97 91 84 77 72 63 57 56 56 59 65 68 72 77 82 88 97 102 110 124 133 129
104 107 110 109 109 110 111 113 114 113 109 106 101 95 94 91 88 84 79 72 66 58 54 53 52 54 57 61 67 75 80 85 92 101 108 117 130 136
107 110 110 109 108 111 113 113 112 108 102 98 93 88 84 81 79 77 72 66 59 54 52 51 52 53 55 60 63 68 75 83 91 97 107 114 122 135
109 109 110 110 111 110 110 108 105 101 95 89 85 81 77 74 71 70 65 60 56 52 51 52 51 51 53 57 61 64 69 76 87 96 102 111 117 127
109 109 110 110 111 108 106 102 97 92 85 81 78 75 72 68 66 62 60 56 52 51 52 51 48 48 51 54 58 62 66 72 80 91 99 104 114 119
109 110 111 111 109 106 101 94 89 84 80 76 74 71 68 65 62 60 56 53 49 49 51 46 47 49 51 52 54 58 64 70 77 85 94 101 106 117
113 113 113 110 106 99 93 87 83 79 76 74 71 67 63 61 58 55 53 51 45 48 48 40 48 49 50 50 53 57 62 67 74 82 89 97 104 111
116 114 111 109 102 94 88 83 79 76 73 69 66 62 58 55 53 52 50 48 45 47 46 37 48 47 49 47 49 53 58 63 69 78 87 93 100 106
116 113 108 103 95 89 84 78 74 71 68 64 62 58 56 53 51 48 46 45 43 45 45 37 42 43 43 44 45 48 52 59 66 73 81 90 95 99
113 109 102 96 89 83 79 75 72 67 64 60 59 57 55 52 49 46 44 42 41 42 44 37 36 38 38 41 44 44 48 53 60 68 75 84 91 94
109 102 95 90 84 78 74 71 68 65 61 58 55 53 51 49 48 45 42 41 38 39 42 36 32 31 32 37 41 42 45 49 55 62 69 76 85 91
103 95 90 84 78 73 70 66 64 60 57 54 52 50 49 48 45 43 40 38 39 37 37 31 30 30 27 33 37 39 41 46 51 56 61 69 76 84
98 91 84 78 74 69 65 62 58 56 53 51 48 46 45 45 43 40 39 38 37 35 32 31 27 27 28 28 33 33 38 42 46 50 55 61 70 76
93 85 79 73 70 65 60 57 55 53 51 49 47 44 42 41 38 38 37 36 37 33 30 31 26 25 25 26 26 29 34 39 43 46 49 55 63 71
86 81 74 69 66 62 58 55 53 50 49 47 45 43 40 37 35 34 35 35 35 33 28 27 25 25 24 22 23 25 30 35 39 42 45 50 57 65
81 77 70 65 62 60 57 53 52 48 47 46 44 41 38 36 35 33 32 33 32 32 27 24 24 22 23 21 21 22 26 31 36 38 41 45 52 60
76 73 66 63 61 57 54 51 49 48 46 44 42 39 37 36 34 32 31 30 30 29 28 22 22 22 20 20 19 21 24 29 32 35 38 41 48 56
74 69 64 61 58 55 52 50 48 46 44 42 40 38 36 35 33 31 30 29 28 27 24 23 20 20 20 19 18 19 21 25 29 32 35 40 44 50
69 67 62 59 57 54 52 50 47 45 42 40 38 37 35 34 31 30 29 28 27 25 24 22 20 20 19 19 18 18 19 22 27 30 33 37 41 47
64 64 60 58 56 54 49 46 44 42 40 38 36 35 34 33 30 28 27 27 25 25 24 21 18 20 19 18 18 18 18 20 25 29 33 37 41 45
64 60 57 55 54 52 48 44 42 40 38 36 35 34 33 31 29 28 27 26 25 24 23 20 18 18 19 18 18 18 18 20 23 29 32 36 40 42
61 58 56 53 51 49 47 44 41 38 36 34 34 33 32 30 28 28 26 25 24 23 22 20 19 17 18 18 18 19 19 20 22 26 30 33 36 39
55 53 52 50 48 46 44 42 39 37 35 33 32 31 31 30 27 26 26 24 23 22 22 21 19 17 17 18 18 20 21 21 23 25 29 33 35 38

GFSNE_250_spd_042.txt.gz
Wind_Speed
96 97 97 102 107 106 108 109 110 110 110 111 108 104 100 97 92 89 85 81 77 73 68 65 62 61 60 62 66 70 74 81 87 87 85 93 107 125
99 98 102 105 106 109 110 113 113 112 109 104 100 96 91 87 84 82 80 76 72 68 62 59 57 56 55 56 61 66 69 73 81 85 82 89 101 119
99 103 107 106 109 111 113 114 113 109 102 99 94 88 84 80 78 75 73 70 66 60 57 55 53 51 51 55 57 61 65 68 75 83 83 83 96 109
102 106 107 110 112 114 115 113 109 106 100 93 90 85 81 77 74 71 70 64 60 56 55 53 48 48 49 50 52 55 58 64 71 77 81 83 88 105
108 109 112 114 116 117 114 111 108 103 96 89 87 82 78 72 69 65 64 60 54 52 53 50 46 46 46 47 51 53 56 60 65 72 78 83 86 97
113 115 116 118 118 116 113 110 104 97 91 86 81 77 72 67 63 60 60 54 52 49 51 46 46 47 45 48 48 51 54 57 61 67 75 80 86 92
116 116 118 119 117 115 113 106 98 91 86 81 77 72 67 63 59 56 55 51 47 48 46 41 48 45 44 45 46 49 51 56 60 63 70 76 82 90
118 118 118 118 117 115 108 99 92 85 80 76 72 68 64 60 56 53 50 50 47 46 44 38 47 41 44 44 46 48 51 55 59 63 67 74 78 83
118 118 119 118 115 109 100 93 87 79 75 71 67 64 61 57 54 50 46 45 45 45 45 37 44 38 41 44 47 48 49 52 56 59 64 71 76 80
118 119 119 116 109 100 94 89 82 75 71 66 63 60 57 55 52 49 46 42 41 42 45 36 40 37 39 44 46 45 47 47 50 55 61 67 74 78
119 118 115 109 101 93 88 84 77 71 67 62 60 58 56 53 51 49 44 41 39 38 43 37 37 37 36 39 43 44 43 45 49 53 56 61 68 73
116 115 109 100 95 89 84 80 72 67 62 59 57 56 54 52 49 47 45 39 37 37 41 36 35 38 32 33 38 43 41 44 47 48 53 57 61 69
113 110 102 94 89 85 80 75 68 64 60 58 56 54 52 50 48 46 44 40 37 35 38 36 32 32 33 30 33 41 40 41 45 47 50 54 58 64
109 104 98 90 85 81 75 71 64 61 58 54 53 51 50 47 46 43 42 39 39 36 34 35 30 27 30 31 32 34 38 37 42 45 48 50 55 59
103 98 92 87 80 75 72 66 61 58 55 52 51 49 48 46 44 40 40 38 37 37 33 32 29 27 28 29 31 32 33 37 38 41 45 47 51 56
95 94 88 82 76 71 67 62 58 55 53 51 50 48 46 44 42 39 36 37 36 35 34 27 28 25 27 28 26 28 30 33 35 38 42 44 47 52
89 88 84 78 71 67 64 60 56 54 52 49 48 45 43 42 39 37 36 36 34 32 32 28 22 24 26 25 24 26 27 29 32 36 39 41 43 47
85 82 76 72 68 65 62 59 55 53 51 48 45 43 41 40 37 36 34 35 33 31 29 25 23 22 24 23 23 24 24 27 30 32 35 37 39 42
81 76 71 68 66 63 60 58 54 52 49 45 43 41 39 38 36 34 33 33 31 28 27 25 22 21 21 22 22 22 23 25 28 30 31 33 36 39
77 72 69 66 64 61 58 55 52 49 47 44 41 39 37 36 35 33 31 31 30 27 25 23 22 20 21 21 21 21 22 24 26 27 29 32 36 38
74 71 67 64 61 58 55 52 49 45 43 42 39 37 35 35 34 32 30 29 29 27 25 23 21 19 21 21 20 21 21 23 25 27 28 32 34 36
72 69 64 60 58 55 53 50 45 43 41 40 37 35 33 33 32 30 29 28 27 25 24 22 20 18 20 21 20 21 21 23 24 26 28 30 32 33
68 64 61 57 55 51 48 46 43 41 38 37 35 33 31 30 30 30 27 26 25 24 23 22 20 18 20 21 20 21 21 22 23 25 27 29 32 33

GFSNE_250_spd_045.txt.gz
Wind_Speed
88 91 93 95 99 103 106 106 107 109 110 110 109 109 107 103 97 91 87 83 78 74 72 70 67 65 65 66 67 69 70 73 74 77 83 89 95 98
93 94 96 99 103 106 107 109 113 113 112 112 112 107 100 92 86 85 80 76 71 67 66 64 63 61 60 60 62 65 66 69 71 73 77 84 90 92
95 98 101 103 107 107 110 114 116 115 113 114 110 106 96 88 83 79 73 69 65 63 61 60 57 57 57 58 59 61 62 64 66 69 72 79 85 87
100 102 104 107 108 111 115 118 117 116 114 110 109 101 94 86 80 74 68 63 60 58 57 57 54 52 52 53 56 59 59 60 63 65 67 73 79 84
103 105 109 109 111 115 119 120 118 116 111 108 104 96 88 82 76 70 66 61 56 54 55 53 51 49 49 49 52 53 56 57 60 62 63 66 73 78
107 109 112 112 116 121 121 120 117 113 108 103 97 90 82 77 72 67 64 57 53 50 51 49 50 47 46 48 48 49 51 52 55 57 60 65 70 74
110 114 113 116 122 123 121 119 114 108 104 97 92 81 78 73 68 63 59 55 49 50 48 43 49 45 45 45 46 47 49 50 52 55 58 62 67 71
114 117 117 122 125 123 119 115 110 104 98 91 84 77 74 69 64 59 56 53 50 49 47 39 47 41 42 42 44 45 46 47 48 51 54 59 64 69
117 118 121 126 125 120 116 111 105 100 92 86 78 74 70 65 61 58 54 51 48 49 51 37 42 39 40 41 43 44 43 43 47 49 52 56 60 67
119 121 125 126 122 117 113 108 100 93 86 81 74 70 66 61 59 57 53 50 45 45 50 41 37 38 39 40 40 41 43 44 46 49 52 56 59 63
121 124 126 122 117 112 107 100 94 87 83 75 71 67 63 60 57 54 51 49 45 41 46 41 35 36 35 36 37 40 43 42 45 48 50 55 58 61
123 126 123 117 114 108 101 93 89 83 78 71 67 61 60 57 53 51 51 49 45 41 41 38 37 34 29 33 36 40 42 42 42 44 47 50 56 60
124 122 117 113 107 101 94 88 83 78 73 66 62 58 56 54 52 51 50 49 46 39 37 34 32 35 34 29 34 39 41 40 38 40 40 43 48 54
119 115 111 106 100 94 89 82 77 72 67 63 59 56 54 52 51 51 48 46 45 40 34 32 31 31 34 33 31 35 37 39 36 37 38 39 43 48
112 108 104 100 93 88 83 78 72 67 64 60 57 54 52 51 50 49 46 43 41 39 35 29 30 31 33 31 31 31 31 36 36 37 37 39 40 44
109 103 97 93 88 82 77 73 68 66 63 59 56 52 51 49 48 47 43 40 37 36 36 29 27 30 31 30 28 29 31 33 34 35 36 37 38 39
102 99 91 87 82 76 71 69 66 64 61 58 54 51 49 47 46 44 41 38 35 32 32 32 27 26 29 29 27 27 30 31 32 34 35 35 35 36
92 90 87 82 77 71 67 67 64 61 59 57 52 49 46 45 44 42 39 37 34 31 28 28 28 26 26 26 26 27 27 28 30 32 32 32 33 34
89 85 80 77 73 69 66 64 62 58 56 53 50 47 44 42 41 40 37 34 33 30 27 26 26 24 24 25 24 26 26 26 28 29 30 30 31 33
83 79 76 73 69 65 63 61 58 55 52 50 47 44 42 40 39 37 35 33 31 29 26 25 25 24 24 24 23 25 25 25 26 27 28 29 30 32
78 75 72 70 66 62 59 57 54 51 47 46 44 42 40 37 36 34 33 30 29 27 26 24 24 24 23 23 23 23 23 24 24 26 27 28 29 31
74 71 69 67 63 58 54 52 50 47 43 42 41 39 37 34 34 32 31 28 26 26 25 23 22 23 22 22 22 22 22 22 23 26 26 27 29 30
71 68 67 63 58 53 50 48 46 44 40 39 38 36 33 32 32 30 29 27 25 25 23 22 21 22 21 21 21 21 22 22 23 25 27 27 29 30

GFSNE_250_spd_048.txt.gz
Wind_Speed
85 87 89 91 93 95 97 99 99 100 104 111 107 109 114 113 108 106 104 100 93 86 81 77 74 72 70 70 72 72 71 71 71 72 73 77 81 86
90 90 92 95 96 99 101 102 104 106 108 112 114 116 118 113 105 102 99 93 85 80 76 72 68 64 63 64 64 66 66 65 66 68 69 71 75 80
93 95 97 100 103 105 106 108 110 112 113 114 118 120 114 112 105 100 91 84 80 76 73 68 63 60 58 58 59 59 59 60 61 63 64 67 69 75
97 98 101 104 107 109 111 113 114 116 117 118 121 120 112 108 101 94 85 79 75 71 68 65 60 57 54 54 56 55 54 56 57 59 61 63 65 69
102 104 107 110 112 114 115 117 117 119 122 122 120 116 110 104 96 87 83 77 71 65 63 60 56 55 52 51 52 51 51 52 53 55 57 60 60 65
105 107 110 113 115 116 117 118 121 123 125 123 116 111 107 100 91 84 80 74 67 61 59 56 54 53 49 48 48 48 49 49 51 52 54 56 57 60
107 110 112 113 116 117 119 122 123 125 126 120 113 109 102 94 86 81 75 70 64 57 57 52 53 52 48 46 46 46 47 47 47 48 51 53 55 57
108 110 112 114 117 119 121 122 126 128 122 116 111 105 97 90 82 76 70 66 61 54 55 49 48 47 48 43 44 44 45 46 46 47 48 50 53 56
108 111 114 117 118 121 122 125 126 123 119 112 106 98 91 84 77 72 66 63 58 54 51 47 45 41 45 43 42 42 43 43 44 45 47 49 52 55
110 113 115 118 120 122 125 124 122 119 112 106 98 91 85 78 72 67 62 60 57 52 48 47 44 40 40 43 41 40 40 41 42 44 45 47 50 53
112 114 116 118 123 124 124 122 118 114 104 98 91 85 79 73 68 62 60 59 56 51 47 45 44 43 33 41 41 39 39 39 40 41 43 46 48 51
111 113 117 121 125 123 121 116 111 105 96 87 86 80 71 68 65 60 59 57 55 52 47 43 40 44 34 36 39 39 38 37 37 38 43 44 46 49
110 115 120 121 121 121 114 109 102 94 89 84 78 72 66 66 63 60 57 55 53 50 46 41 37 39 38 30 38 39 37 36 34 37 40 43 44 48
115 117 119 119 116 112 108 100 92 87 84 78 74 69 63 64 60 57 55 53 50 49 44 39 36 37 35 31 33 37 36 36 34 36 37 39 40 44
122 118 116 114 111 106 99 92 85 82 78 75 70 67 62 60 57 55 52 50 47 46 43 38 34 34 37 31 31 31 34 36 35 33 32 33 35 38
118 117 113 108 106 97 90 86 81 77 73 71 68 64 59 56 54 51 49 46 44 42 41 37 33 32 36 33 30 30 31 34 33 31 31 31 31 33
108 106 104 102 95 91 86 80 76 74 71 67 63 60 56 53 51 48 46 43 42 39 37 37 34 30 31 32 30 29 30 29 29 29 30 29 30 31
103 99 95 91 89 85 80 76 72 70 66 63 60 57 53 50 47 45 43 40 39 37 34 33 33 32 28 29 29 28 29 27 26 28 29 28 28 29
97 92 89 86 83 79 76 72 67 64 62 59 56 53 49 47 44 42 40 38 36 34 31 30 30 30 29 27 27 27 26 24 25 26 27 27 27 28
91 86 84 80 78 74 70 67 63 61 58 55 51 49 46 43 41 39 38 36 34 32 29 28 28 28 28 26 26 26 25 24 24 25 26 26 26 27
87 82 78 76 73 69 65 62 59 56 54 51 47 45 43 40 38 37 35 33 32 31 28 26 26 26 26 25 25 25 25 24 24 24 24 24 25 26
81 78 75 72 68 65 61 57 53 51 50 47 44 42 40 38 35 34 33 32 30 29 27 26 24 25 24 23 23 23 24 23 22 24 24 24 24 26
77 74 72 68 63 59 56 53 49 46 46 45 40 39 37 34 32 31 31 30 28 28 26 25 24 24 23 22 22 23 22 22 21 23 24 24 24 26

GFSNE_250_spd_051.txt.gz
Wind_Speed
87 93 93 92 93 96 99 103 106 107 108 110 112 112 111 109 110 111 111 112 111 106 104 101 94 88 82 77 74 71 69 68 66 64 64 63 66 67
90 94 95 97 98 101 104 107 110 112 111 113 114 115 116 117 116 115 115 111 107 104 100 95 89 82 76 71 66 63 62 63 61 59 59 59 60 63
91 95 97 100 103 106 109 110 111 114 115 113 116 118 118 119 117 116 117 110 103 99 93 87 83 78 71 64 59 58 58 58 58 55 55 56 57 59
92 95 100 103 104 107 109 113 115 115 115 114 116 120 120 122 121 116 113 109 103 95 87 83 78 73 67 61 55 51 53 54 52 52 51 53 54 57
96 99 102 104 106 109 113 114 115 114 115 116 117 119 121 124 119 115 107 104 99 89 82 78 74 68 62 57 52 50 51 51 50 49 50 50 52 55
98 100 101 104 107 111 115 116 114 113 116 118 120 122 124 122 116 109 105 100 90 84 77 72 66 63 59 55 52 48 51 48 49 48 48 48 49 51
99 98 102 106 110 114 117 115 114 115 118 120 124 125 122 118 114 107 100 91 86 78 71 67 60 58 56 53 51 45 46 48 46 47 46 47 47 49
97 102 107 112 114 117 117 115 115 117 121 128 128 125 121 118 112 105 95 87 81 75 65 63 57 55 52 49 50 48 45 45 45 44 43 44 45 47
100 104 109 114 116 118 115 113 117 120 127 126 124 123 120 116 108 96 88 81 74 69 61 61 55 53 50 48 48 48 44 44 43 42 42 42 43 46
105 109 114 114 116 117 116 118 118 121 124 123 121 118 116 110 99 88 82 75 71 66 60 60 54 52 49 48 48 47 43 42 41 39 40 40 42 45
110 114 114 114 115 115 117 120 122 123 124 121 116 111 105 97 90 83 76 70 67 66 59 57 53 51 48 46 45 47 41 38 37 37 38 40 42 45
109 109 112 114 114 115 120 125 123 120 120 117 111 102 96 89 83 77 73 68 65 64 58 56 50 47 49 42 41 45 38 35 35 35 37 40 41 44
106 108 110 111 114 117 121 120 118 117 115 110 101 95 88 77 78 73 69 64 62 61 56 53 48 44 44 44 35 42 38 34 32 33 37 39 41 43
108 108 109 112 116 119 119 117 117 112 106 98 92 87 81 77 71 67 66 65 60 56 53 50 46 42 41 39 36 36 37 35 32 34 36 38 40 41
109 110 113 116 117 115 116 116 112 105 97 91 85 81 77 72 68 63 61 59 57 54 52 47 43 39 38 37 32 35 35 36 33 33 33 35 38 40
108 111 114 114 115 115 113 108 101 96 90 85 81 77 73 67 65 61 59 55 52 49 47 44 40 37 35 36 32 33 33 33 33 32 33 34 36 39
108 109 111 110 110 109 104 97 92 89 84 80 77 73 69 64 61 57 55 51 49 46 44 41 38 35 33 33 32 31 31 30 30 31 32 31 32 32
110 108 107 107 103 98 94 90 86 82 80 75 72 69 65 60 57 53 51 48 46 44 40 38 36 35 31 29 30 29 29 29 28 29 29 28 29 29
109 107 102 96 93 92 88 84 80 77 74 70 68 63 58 55 53 50 48 45 43 41 38 35 34 33 31 28 28 28 27 28 27 27 27 27 26 27
106 99 94 91 89 87 82 79 75 71 69 65 61 57 54 51 50 47 45 43 40 38 35 32 31 31 30 27 28 27 26 26 26 26 25 26 25 26
97 92 89 87 84 81 78 73 68 66 62 59 56 53 51 48 46 44 42 40 37 35 33 30 29 29 28 27 27 26 25 25 24 24 24 24 24 25
89 85 84 83 80 77 73 68 63 59 57 54 52 50 48 45 43 40 38 36 34 33 31 28 27 27 27 26 26 25 24 24 23 23 23 23 23 25
84 82 80 78 75 71 68 63 57 55 53 50 49 47 46 42 40 37 35 34 33 31 29 27 26 26 26 25 24 24 24 23 22 22 22 22 23 24

GFSNE_250_spd_054.txt.gz
Wind_Speed
76 81 86 89 94 95 99 101 101 101 102 105 109 112 113 115 115 111 105 104 104 108 111 110 106 101 95 90 83 78 74 73 70 70 68 64 63 63
83 86 89 94 96 100 101 102 104 105 105 106 111 115 117 118 117 113 108 107 109 113 110 105 102 100 95 87 76 73 69 66 64 64 62 61 59 58
88 90 93 96 98 100 103 104 107 109 108 108 113 116 119 121 118 114 111 110 114 112 109 104 98 96 90 82 76 71 65 61 59 59 58 55 54 54
89 93 96 98 100 102 106 107 108 110 112 111 116 121 122 122 121 115 115 118 113 112 109 104 96 92 82 77 71 66 60 57 54 54 54 52 50 50
92 94 95 98 101 104 105 106 110 114 117 120 122 121 121 122 120 117 116 118 114 112 108 97 90 83 80 74 67 61 56 53 51 51 52 50 48 48
88 93 97 100 101 102 106 111 115 117 122 123 120 119 121 121 121 120 118 115 110 106 95 87 81 75 72 67 62 59 54 49 46 50 47 47 47 46
90 93 97 100 105 110 113 115 119 122 122 122 120 121 119 121 124 123 118 110 104 99 87 82 77 72 66 62 59 57 53 48 41 45 44 43 44 45
91 96 100 104 107 109 112 114 116 117 116 121 122 123 123 125 126 123 117 109 99 94 81 78 72 67 63 59 57 56 52 48 42 40 42 41 43 44
96 100 103 104 104 106 107 107 108 112 115 118 120 122 125 126 125 119 110 102 92 88 78 70 69 66 59 57 55 54 50 46 40 41 41 40 42 43
92 93 95 96 99 101 102 104 106 109 114 118 121 121 122 119 117 111 104 93 87 81 74 66 67 62 59 55 54 52 49 44 39 39 41 41 41 42
93 96 97 97 99 100 101 104 107 111 114 117 120 121 119 112 107 102 95 89 80 76 73 64 64 59 58 53 51 49 48 43 38 39 40 41 40 41
95 97 98 100 100 102 105 107 109 111 114 116 117 116 111 105 98 92 87 81 73 71 68 61 60 54 55 50 48 46 46 42 36 36 39 39 39 39
94 96 99 100 101 105 110 112 113 113 114 114 112 109 102 95 90 86 81 78 71 67 61 59 58 52 51 50 44 44 44 41 37 34 37 36 37 37
97 98 98 100 103 107 110 112 113 114 112 109 105 101 96 92 85 80 76 74 71 64 59 57 54 50 46 44 43 40 41 38 36 33 33 34 36 37
101 101 102 104 107 111 113 113 111 109 106 102 99 96 91 86 81 77 71 66 66 63 57 51 48 45 42 41 39 38 37 37 34 33 32 33 35 37
105 106 107 110 114 115 113 110 109 106 101 97 94 89 84 80 77 72 68 63 59 56 53 49 46 42 38 38 37 34 36 34 33 32 32 33 34 35
110 110 111 114 114 112 108 105 102 98 95 90 86 83 79 75 71 68 62 58 55 50 47 45 42 38 35 34 34 33 34 32 31 31 32 33 32 32
114 114 114 114 109 104 99 96 94 92 89 85 81 79 75 71 66 62 57 55 52 47 44 41 39 35 33 33 32 32 31 30 29 30 31 31 30 30
119 118 115 109 103 98 93 89 89 88 84 81 78 74 70 64 60 56 53 52 49 45 42 39 37 35 33 31 29 30 29 29 29 29 29 29 28 28
120 116 109 104 100 94 90 87 84 83 80 77 73 68 63 59 56 52 50 49 45 42 40 37 34 33 31 30 28 28 27 27 28 28 28 28 27 27
117 113 107 102 96 90 86 83 81 79 75 71 67 63 58 55 53 49 47 45 42 39 37 35 32 31 29 28 27 27 25 25 26 27 27 27 26 26
112 108 104 97 92 87 85 82 78 73 68 65 62 59 55 53 50 46 43 42 39 37 35 33 30 29 28 28 26 26 25 24 25 25 25 25 26 26
108 102 97 93 89 84 80 77 73 69 64 61 58 57 53 50 47 43 40 39 37 35 33 32 29 28 27 27 26 25 24 23 24 24 24 24 26 26

GFSNE_250_spd_057.txt.gz
Wind_Speed
78 80 83 89 92 94 98 97 102 102 103 104 106 113 114 115 116 116 116 115 116 113 110 110 111 108 106 101 99 94 88 84 82 78 75 74 72 72
80 86 89 91 94 95 97 100 102 101 98 104 108 112 117 120 120 118 117 115 112 109 110 110 109 108 107 98 97 92 85 79 74 69 68 67 65 63
82 86 87 87 90 94 96 96 97 101 102 103 109 115 118 123 123 119 115 111 110 109 109 109 110 109 105 95 93 85 77 73 68 65 62 60 60 58
78 81 84 86 86 87 91 96 98 102 106 108 112 112 110 111 113 114 114 113 111 110 111 109 108 107 103 94 89 80 73 67 64 60 57 56 56 54
76 77 77 79 83 87 92 97 102 104 104 103 102 106 108 108 108 109 113 115 114 113 112 108 104 99 93 87 79 77 72 63 59 56 54 54 53 52
72 75 77 80 84 89 94 99 102 105 108 108 109 105 104 105 108 111 113 115 115 115 113 104 99 92 83 75 73 70 66 61 58 54 51 51 53 51
75 76 79 84 87 91 95 103 105 106 105 105 104 102 102 107 111 113 117 118 116 113 107 99 90 82 77 72 67 63 62 59 55 51 48 47 52 51
74 77 81 84 89 94 96 99 100 98 98 102 100 103 103 109 115 120 120 120 115 109 100 89 84 79 74 69 64 62 60 57 53 49 45 43 48 51
79 79 82 89 91 93 95 98 100 100 100 101 101 104 108 114 120 120 119 116 110 103 93 83 80 76 71 67 62 59 56 53 50 47 43 43 46 47
77 80 84 88 91 94 95 101 101 100 99 104 108 110 115 119 120 117 114 110 101 95 88 77 77 73 68 65 59 56 53 50 48 46 42 42 45 45
80 83 88 90 94 99 103 105 100 100 101 107 112 117 121 118 117 115 109 101 95 90 83 71 73 68 65 62 56 55 52 47 47 43 41 41 44 42
84 88 90 94 101 109 111 105 105 107 107 107 112 120 119 117 114 110 103 96 89 84 79 70 70 63 62 60 53 52 49 45 44 41 39 39 42 39
85 89 95 100 108 117 114 115 115 111 111 113 115 112 111 108 104 101 97 92 84 78 73 67 65 62 57 56 49 48 46 42 41 38 37 36 39 38
87 91 99 109 115 117 116 118 118 117 115 112 110 109 105 100 97 94 91 87 82 77 68 63 60 56 53 50 48 44 42 41 38 35 35 34 37 37
92 98 107 112 116 120 121 121 120 117 116 112 108 103 99 95 92 88 83 80 76 71 65 58 55 52 49 46 44 42 39 38 35 32 33 33 34 35
99 105 111 117 121 122 123 124 121 119 115 108 102 97 94 90 88 83 80 73 69 65 59 55 52 47 45 44 42 38 38 35 35 31 31 32 33 33
110 112 117 123 125 126 125 122 121 117 110 105 99 94 91 86 83 78 72 67 63 60 55 51 49 44 41 39 38 37 34 34 32 31 30 31 31 31
115 118 122 124 126 124 124 121 116 110 103 99 94 89 86 82 76 71 66 62 58 56 53 49 45 42 40 37 36 36 32 32 31 29 30 30 30 29
121 123 126 127 125 124 121 117 110 104 97 92 87 85 80 75 70 65 63 59 55 52 48 45 41 40 36 34 34 32 31 29 30 29 29 29 28 26
124 127 127 126 125 122 116 110 103 97 94 90 84 80 75 70 65 62 59 55 52 49 45 42 39 37 33 31 31 30 29 28 28 28 28 28 27 25
128 130 128 127 124 116 109 101 97 94 90 86 81 75 71 66 61 58 55 51 49 46 41 40 37 35 31 30 29 28 27 26 26 27 27 27 26 25
128 125 126 122 115 109 103 98 93 89 86 82 76 71 67 62 57 54 51 48 45 43 39 38 35 33 30 28 28 27 26 25 26 26 26 26 25 25
126 123 118 113 109 103 97 93 89 85 80 76 70 65 61 58 51 49 47 44 41 40 38 36 33 32 29 27 27 26 25 25 24 25 25 24 24 24

GFSNE_250_spd_060.txt.gz
Wind_Speed
79 79 81 83 85 88 88 89 88 86 89 89 93 97 100 104 106 107 107 109 111 112 112 111 111 110 111 114 113 109 102 89 86 82 80 79 80 80
78 82 82 86 84 84 82 86 87 84 83 87 93 99 103 108 110 111 113 115 112 112 111 111 110 109 111 113 113 110 99 89 86 78 76 74 72 71
85 86 88 85 85 85 87 84 81 84 86 91 93 101 102 106 109 116 117 115 112 111 110 107 108 111 113 113 111 104 99 89 80 74 69 68 67 66
88 87 86 86 88 81 79 83 84 87 88 92 96 99 100 105 110 107 106 107 106 107 110 110 113 115 114 109 103 95 91 83 77 71 65 64 63 60
84 86 83 77 77 81 83 86 86 88 92 95 93 92 98 102 106 108 106 106 106 108 112 117 117 116 110 102 91 89 82 79 74 69 63 59 57 57
80 76 77 79 81 83 83 84 89 92 91 92 94 93 99 105 107 108 104 106 107 111 113 117 117 113 104 96 87 81 77 72 69 65 60 58 57 54
77 78 79 81 82 82 86 92 91 90 94 96 97 96 101 106 110 109 110 111 112 117 118 118 114 107 100 90 83 76 70 67 65 63 59 57 54 52
79 80 80 81 81 88 88 85 91 92 92 93 97 98 105 110 112 110 110 113 115 114 116 111 106 97 92 85 79 72 66 64 62 60 55 53 50 49
76 79 82 85 86 84 86 89 94 97 95 94 98 104 106 114 112 110 108 112 112 115 114 103 99 93 86 82 74 69 64 62 58 56 52 50 48 46
78 79 80 82 83 86 89 93 93 101 96 98 105 109 116 116 116 113 114 115 113 110 110 98 93 88 82 79 70 65 61 59 56 52 49 47 45 45
68 68 71 76 79 84 86 87 92 94 95 102 107 114 118 119 120 118 120 114 111 106 104 95 90 83 80 77 67 61 59 56 52 47 45 43 41 41
73 75 79 81 83 84 86 86 86 90 97 104 111 118 121 121 121 122 117 110 107 101 99 91 87 80 75 72 65 57 55 51 48 44 42 40 39 38
83 84 85 85 89 92 91 88 89 92 100 105 113 120 119 120 117 116 112 108 101 97 92 85 80 74 68 64 60 52 51 48 45 42 39 37 36 37
89 90 90 91 94 95 95 92 97 104 106 112 117 117 117 114 115 112 107 102 97 93 88 80 73 69 64 59 55 50 48 45 44 39 37 36 35 35
91 91 93 97 98 98 99 99 104 110 115 118 119 117 111 111 112 104 101 97 93 87 82 74 70 64 60 55 51 47 46 42 41 36 34 35 34 34
94 94 97 98 98 100 101 106 113 117 120 119 119 115 112 109 105 98 94 93 86 81 74 69 65 61 57 51 49 45 44 40 40 35 32 33 33 32
99 98 99 98 100 103 109 114 119 121 121 123 118 115 110 105 100 94 90 86 80 75 68 64 61 57 52 48 46 43 41 38 36 35 31 32 31 30
105 103 103 104 107 111 114 117 119 121 123 121 118 112 103 100 95 92 86 81 74 69 63 60 56 52 48 45 44 41 39 36 34 32 31 30 30 28
111 109 109 111 113 115 118 120 122 123 121 118 111 105 99 95 91 86 80 74 69 64 58 55 52 48 44 41 41 37 37 33 32 30 29 29 27 26
112 112 114 115 116 118 120 122 123 121 118 111 104 100 93 89 84 77 74 69 65 58 53 50 48 45 40 39 38 35 32 32 29 28 27 27 25 25
115 117 118 118 121 121 122 122 120 115 108 104 98 94 88 82 77 74 68 65 60 54 50 47 44 40 38 36 36 34 30 30 28 28 26 25 25 24
118 119 119 121 120 123 121 118 112 106 102 96 92 88 82 77 72 69 64 60 55 50 47 45 42 37 36 34 33 31 29 28 27 26 26 25 24 24
119 120 122 121 122 118 113 110 103 99 93 90 85 81 75 71 68 63 58 56 52 47 45 42 40 35 35 33 31 30 27 26 26 25 25 24 24 24

GFSNE_250_spd_066.txt.gz
Wind_Speed
43 41 50 57 59 66 76 83 88 78 80 88 95 98 97 90 88 85 83 84 84 90 94 96 97 102 106 105 109 114 116 119 118 121 123 120 118 112
47 54 66 61 71 78 83 83 80 85 88 94 95 90 91 92 87 85 88 89 91 92 93 95 98 101 104 109 111 114 118 122 125 125 121 120 114 104
57 64 68 74 78 80 80 84 92 90 89 97 88 85 83 82 83 86 86 86 88 91 93 97 100 105 108 108 110 112 116 120 116 119 124 119 108 95
67 73 74 79 85 89 89 88 88 98 88 80 78 72 71 76 79 83 85 86 90 94 96 101 103 106 107 109 112 116 115 114 113 117 121 116 102 89
73 77 83 86 87 88 94 89 86 83 75 68 71 71 74 76 80 84 86 87 92 95 100 103 104 105 109 112 115 114 114 116 116 117 116 109 97 85
76 80 84 89 86 83 81 71 67 63 66 67 71 72 76 81 84 85 87 92 94 99 103 104 105 108 111 113 112 112 114 115 116 115 109 100 93 82
69 74 76 80 71 65 65 66 63 67 69 71 73 76 79 83 86 89 90 91 92 97 99 103 107 108 111 112 113 112 111 113 113 109 100 93 85 78
66 66 65 69 65 64 64 66 67 67 66 70 73 77 82 86 89 94 96 94 92 99 100 103 106 102 107 107 109 108 109 110 105 102 95 87 76 70
66 66 63 65 67 65 66 70 69 71 71 75 78 81 85 90 92 96 100 96 97 100 104 100 103 104 106 105 106 107 107 105 98 94 88 79 70 64
64 65 69 69 69 72 72 71 74 75 77 81 84 87 90 94 98 101 104 100 100 103 108 100 105 104 103 104 105 103 102 100 93 86 79 70 64 60
67 70 72 72 72 74 75 76 77 80 82 86 88 91 96 101 104 107 108 108 106 107 113 107 109 107 102 103 101 98 95 94 87 82 73 67 61 56
69 70 71 73 75 77 80 81 84 87 89 91 94 96 102 108 110 112 116 116 111 108 115 110 112 111 98 100 98 93 90 87 78 73 67 62 56 52
72 74 76 78 80 80 83 86 90 94 93 95 100 103 109 112 115 119 123 119 114 115 118 114 109 106 103 94 91 88 84 80 73 66 61 58 53 50
77 79 80 81 85 87 88 91 94 97 98 101 103 107 111 114 120 123 124 120 119 120 118 116 107 102 97 92 88 82 79 75 67 61 56 51 49 46
82 85 86 86 90 92 93 95 98 101 103 105 107 111 115 120 124 125 123 120 120 122 120 112 104 98 94 89 81 78 75 69 62 56 51 48 46 42
88 90 90 92 95 96 98 100 103 107 109 109 112 117 121 126 126 124 122 119 118 118 119 107 101 93 88 85 78 74 70 63 57 53 47 46 43 39
94 93 96 98 99 100 102 106 110 111 112 115 119 124 127 127 127 124 120 119 115 109 106 103 96 90 86 81 75 68 63 57 54 49 45 42 40 35
97 99 101 102 102 105 109 111 115 116 120 122 126 129 129 128 124 121 119 114 109 105 99 93 91 85 83 77 71 63 58 53 50 46 43 39 37 32
101 103 105 103 107 110 112 117 119 123 125 129 131 132 129 124 119 117 115 109 103 99 95 89 84 80 75 69 65 60 56 50 47 44 39 37 35 31
104 107 105 112 113 115 118 121 125 127 131 132 131 128 122 117 116 112 107 102 98 94 90 85 79 74 69 65 59 55 50 46 44 40 37 35 34 31
108 111 113 114 118 119 123 127 130 133 130 128 124 120 116 113 107 104 100 96 92 87 83 78 72 67 64 59 54 52 46 43 40 37 36 33 32 30
115 116 118 120 122 126 130 132 130 129 127 122 118 115 110 104 100 96 94 91 87 82 77 69 65 62 57 53 51 48 43 39 37 35 33 31 30 29
119 122 123 124 128 130 129 128 125 123 119 115 112 106 102 98 92 91 86 83 79 74 69 64 59 55 54 49 47 44 40 36 34 33 31 30 29 27

GFSNE_250_spd_069.txt.gz
Wind_Speed
50 54 56 52 49 48 56 59 61 68 72 80 79 78 82 83 88 89 83 76 77 76 76 78 82 84 87 91 95 97 101 104 105 107 109 112 112 113
49 46 43 46 49 56 58 63 68 69 76 77 80 78 84 88 82 74 72 74 77 79 81 83 85 87 91 95 98 101 103 103 105 111 112 111 113 117
49 51 48 51 57 61 62 67 71 76 79 74 81 83 79 71 73 73 76 77 80 82 81 85 88 91 93 97 102 103 103 106 108 110 110 110 115 119
49 51 62 61 62 62 63 70 75 77 79 73 73 70 70 69 73 76 75 78 76 80 85 88 90 92 96 100 103 102 101 103 103 107 107 111 117 120
53 56 59 63 61 66 69 73 78 70 73 71 71 69 70 75 75 75 81 82 83 83 85 89 93 96 99 102 103 104 104 105 105 110 113 116 119 121
55 58 59 56 61 70 75 67 72 74 70 66 70 66 68 72 74 78 82 82 83 87 89 93 95 99 102 104 107 110 111 109 111 114 117 119 120 120
61 56 64 64 64 64 65 65 69 70 72 70 71 74 74 73 75 78 81 84 86 91 94 96 99 103 107 109 113 116 116 111 113 116 118 120 120 117
48 51 55 59 61 63 66 69 71 72 73 73 72 73 77 79 81 81 83 85 87 91 94 96 102 104 109 115 118 118 114 113 115 117 121 120 116 109
50 52 54 57 61 64 67 69 71 73 74 75 77 78 83 84 85 88 89 89 93 97 96 96 105 106 114 119 121 117 113 113 117 120 120 116 107 97
55 57 60 64 67 70 72 72 73 75 77 79 82 84 86 89 89 92 93 96 99 102 105 102 109 112 117 121 120 117 113 113 117 118 113 107 96 89
63 64 66 69 70 73 75 77 78 79 82 84 87 89 92 93 94 97 98 100 102 106 111 111 114 116 120 121 122 117 115 115 115 108 101 96 89 80
68 70 74 73 74 77 80 82 85 86 87 90 91 94 97 99 100 102 103 104 107 110 117 115 119 122 118 121 119 115 115 113 106 99 92 85 80 73
73 75 78 77 79 82 85 88 89 91 92 95 96 100 102 104 105 106 107 109 112 118 123 123 124 127 127 119 115 116 112 104 97 90 85 78 72 67
79 80 81 84 87 89 91 92 91 93 95 100 102 105 106 107 109 108 110 113 119 125 128 130 127 129 124 120 118 114 103 96 88 84 78 71 64 60
87 86 88 90 92 93 93 94 95 97 101 104 104 107 110 110 110 112 114 120 124 129 133 135 131 126 121 120 113 103 95 89 85 80 72 65 59 54
89 91 93 96 97 97 97 98 99 105 104 104 107 114 112 111 113 116 120 125 128 131 134 135 131 122 121 116 103 92 86 83 80 75 67 61 55 50
97 98 99 99 100 103 101 103 106 105 105 112 113 113 113 116 118 123 127 130 132 132 131 131 128 122 114 103 96 87 81 77 73 69 63 57 52 45
100 103 104 103 105 106 106 107 108 109 114 113 114 116 119 121 125 130 133 134 133 129 127 124 121 111 102 95 89 83 79 72 67 63 57 51 47 42
104 106 104 107 110 111 110 113 112 119 116 116 120 123 124 127 131 135 135 131 127 125 123 117 106 99 94 89 83 78 73 68 62 57 52 47 45 39
106 109 111 115 115 113 114 115 123 119 121 124 125 127 130 132 134 132 128 125 122 118 111 106 98 93 87 82 77 72 68 63 57 53 49 45 42 38
111 114 118 115 115 120 120 124 122 125 127 127 129 132 133 131 129 125 122 117 111 104 101 98 92 86 81 76 71 65 62 56 51 49 46 42 39 36
117 113 114 114 118 121 124 126 126 128 129 129 132 130 128 126 121 117 110 104 99 96 93 89 85 79 75 70 65 60 56 51 47 45 42 39 36 34
115 117 118 121 123 123 127 125 129 131 131 131 127 126 121 118 111 104 98 95 92 88 83 81 76 72 69 63 60 55 51 48 43 42 39 36 34 32

GFSNE_250_spd_072.txt.gz
Wind_Speed
50 51 50 54 53 44 42 40 41 44 49 55 58 62 67 67 72 75 80 81 76 76 74 78 78 80 81 85 83 85 89 91 93 94 99 101 102 105
55 55 53 50 49 48 47 47 48 51 52 56 60 62 64 72 74 85 81 74 76 75 78 78 80 84 83 85 86 89 92 93 95 96 100 101 104 109
56 50 49 47 44 44 51 52 54 55 56 60 62 64 71 74 82 72 72 74 75 76 75 79 83 84 83 84 88 90 93 96 97 98 102 104 107 111
52 44 43 46 49 54 54 57 58 59 57 65 65 69 82 83 73 72 76 77 79 75 82 85 83 85 88 90 93 93 96 97 97 100 104 106 110 112
48 45 47 46 48 58 61 61 60 64 65 70 76 78 72 70 72 74 77 77 78 83 85 85 88 91 91 93 96 98 98 98 101 105 108 109 113 114
48 46 48 48 48 56 59 59 60 68 70 72 69 69 70 70 74 79 81 81 86 87 88 91 92 94 96 98 101 103 102 104 107 111 113 116 116 118
47 52 60 57 59 61 65 64 69 68 64 67 70 73 75 77 79 82 83 86 87 90 92 95 96 99 101 102 107 108 108 109 113 114 117 118 119 121
53 55 56 55 54 56 59 60 63 65 68 72 75 75 77 80 84 87 89 90 93 94 96 99 101 104 106 109 111 110 110 114 117 120 121 121 121 119
42 45 48 52 55 59 62 66 68 72 75 75 78 79 83 86 89 90 92 95 98 99 99 97 104 106 110 113 112 113 115 118 120 121 123 122 121 118
51 54 57 60 64 66 69 71 73 76 78 81 83 85 88 90 92 94 96 95 97 101 104 104 108 109 114 114 114 116 118 121 123 125 126 122 119 116
57 61 65 67 69 71 74 75 79 81 84 87 89 91 93 95 97 97 100 99 101 104 105 106 110 114 111 114 117 120 121 124 128 128 125 119 115 110
64 66 68 70 72 76 80 84 87 89 92 93 92 94 96 99 102 104 103 102 108 104 107 108 113 115 112 115 120 125 128 128 127 126 120 116 108 99
70 72 74 78 80 85 87 89 91 94 94 95 98 102 105 105 107 107 107 107 106 107 113 115 114 117 118 116 125 129 130 129 127 122 115 107 97 90
77 79 83 88 90 93 94 94 95 98 100 105 110 108 109 110 109 110 112 112 110 113 120 122 118 121 122 125 129 132 132 128 123 116 107 97 89 83
84 87 92 94 95 98 97 98 101 104 108 112 111 112 112 113 112 116 115 114 114 117 124 122 126 126 128 130 131 134 128 125 117 107 98 91 83 78
89 90 93 98 100 102 105 108 110 114 113 113 114 113 111 113 117 119 117 118 116 123 126 128 131 131 132 132 131 131 124 118 107 98 92 84 80 73
92 94 97 100 103 107 109 112 115 116 114 115 114 113 118 118 118 118 119 121 123 127 129 131 133 135 138 135 131 126 119 109 98 91 86 79 75 69
98 101 103 106 109 111 114 114 115 117 116 114 116 120 123 125 124 121 122 124 128 131 130 133 136 138 133 130 124 119 109 99 91 85 79 73 69 65
106 106 109 111 115 116 119 121 122 119 118 119 122 126 127 125 125 122 125 129 129 130 133 135 135 129 126 121 116 107 100 92 85 81 74 68 63 59
113 114 116 117 117 118 117 117 119 122 122 123 125 123 124 122 122 125 127 128 129 128 129 130 127 122 113 107 104 99 93 84 78 75 69 64 57 53
118 118 117 120 120 122 121 122 126 126 125 125 123 121 121 122 124 125 126 127 126 126 124 122 117 109 102 97 95 92 85 77 71 68 63 58 53 49
116 118 120 121 123 124 123 125 126 124 121 119 119 120 122 125 124 123 123 123 122 117 112 108 103 98 95 91 87 80 75 69 66 61 57 54 49 46
117 117 117 119 120 121 121 118 118 120 118 119 122 123 121 120 121 120 119 114 109 105 99 96 95 90 85 80 77 72 68 63 59 54 52 48 45 42

GFSNE_250_spd_075.txt.gz
Wind_Speed
42 43 50 52 56 56 58 60 55 54 54 53 54 53 48 49 52 54 55 60 64 69 75 74 70 73 77 78 79 83 85 86 88 89 89 91 95 98
51 52 50 55 57 60 52 52 52 53 50 54 51 50 52 53 55 58 61 69 72 76 69 71 74 77 79 79 81 83 85 87 90 93 95 97 100 102
52 49 49 53 50 54 51 49 53 54 53 54 54 56 56 55 57 63 65 69 71 70 74 76 79 82 84 86 89 91 92 92 94 94 97 99 101 105
44 47 45 50 51 51 50 52 49 51 54 59 57 63 64 66 60 67 72 68 71 73 75 79 83 86 88 91 92 95 97 97 95 98 103 104 107 110
48 50 51 53 53 54 53 52 51 51 53 53 58 63 70 70 72 67 72 73 75 76 80 83 86 91 93 94 95 96 95 96 100 101 103 105 109 111
53 54 55 55 58 55 54 53 54 58 59 60 61 64 67 66 70 73 75 79 80 84 85 87 90 94 97 98 100 100 100 102 102 100 103 107 109 111
55 56 57 57 54 52 50 55 59 64 64 61 62 66 69 72 75 78 81 83 85 88 91 94 94 99 101 102 103 105 105 108 105 105 108 112 112 114
49 46 48 46 47 49 51 55 57 58 62 65 69 73 75 77 80 82 86 89 92 95 95 96 101 104 106 108 106 109 111 111 109 108 113 117 116 116
43 44 47 48 50 52 55 57 60 63 66 68 71 74 78 81 84 88 90 91 94 97 98 100 108 108 108 109 110 113 116 115 115 112 116 119 120 119
51 52 54 54 52 55 57 61 63 67 71 74 77 79 84 89 90 92 94 96 99 100 103 108 112 109 111 110 112 116 120 120 119 117 121 123 124 124
54 54 57 58 59 63 67 69 71 73 75 79 84 88 91 93 97 98 102 101 102 105 112 115 115 113 113 113 115 117 118 120 120 119 123 124 127 127
63 61 61 65 66 68 70 73 76 78 81 85 89 90 97 100 104 105 103 103 108 113 117 115 115 118 114 117 121 123 124 121 122 124 125 128 128 124
69 70 71 70 71 74 76 79 83 87 90 94 96 98 100 102 104 107 107 110 115 117 121 117 119 120 121 119 123 124 123 122 126 127 127 126 125 117
71 72 78 79 80 81 82 87 91 95 96 98 101 102 104 108 111 110 113 116 120 119 123 128 123 124 120 122 123 124 125 127 129 128 128 122 118 111
78 80 81 84 85 86 88 89 92 94 97 100 103 105 109 111 113 113 118 122 122 126 128 128 128 126 125 125 125 125 125 128 132 129 125 119 111 105
82 84 85 86 88 90 93 97 98 100 104 107 110 110 111 113 115 123 126 127 128 129 130 130 130 128 129 126 124 124 128 128 129 127 120 113 107 97
92 93 93 95 95 98 101 103 105 107 108 111 113 117 120 122 123 128 128 129 130 130 129 131 130 126 123 124 125 129 128 128 126 123 114 105 99 90
101 100 102 103 106 107 110 112 115 116 115 117 121 124 126 125 127 128 130 128 127 128 130 130 126 121 123 124 127 124 129 125 122 115 106 96 91 84
110 108 112 113 113 116 119 120 119 119 121 122 122 124 126 126 130 126 128 128 130 122 120 120 123 124 119 118 124 127 124 118 113 105 98 90 83 77
104 104 110 114 117 120 122 125 121 122 124 119 120 122 122 124 126 125 126 127 121 121 122 124 123 120 116 114 112 118 117 104 101 95 88 81 75 71
114 120 124 126 126 125 125 126 124 124 125 123 126 124 125 125 127 127 122 121 122 121 121 119 117 114 111 106 103 104 104 93 92 85 78 75 69 65
124 123 122 123 120 124 126 127 129 130 132 133 127 128 127 124 121 120 121 120 118 116 114 111 111 106 102 97 94 93 91 84 83 76 72 67 62 58
120 118 118 123 129 130 131 132 135 130 127 129 130 125 120 124 119 115 114 113 112 110 108 104 100 95 93 88 85 83 79 76 73 70 65 59 55 51

GFSNE_250_spd_078.txt.gz
Wind_Speed
50 50 46 45 42 44 47 50 51 55 55 55 53 55 52 56 56 57 54 50 50 47 49 49 53 56 64 67 68 73 75 80 83 85 86 89 89 89
40 42 44 45 47 50 52 55 48 45 48 53 54 56 59 61 61 56 51 51 49 50 52 56 61 66 68 72 76 79 80 83 87 88 92 96 95 94
44 45 48 51 54 53 47 48 46 47 51 54 55 57 58 61 57 56 49 48 53 55 59 66 73 71 73 77 80 83 87 89 92 92 96 102 96 97
50 50 53 51 49 49 47 50 52 53 54 56 57 59 57 57 54 54 54 55 59 62 69 71 73 75 77 79 83 88 89 92 96 97 101 105 102 100
53 50 49 50 52 51 51 53 56 59 60 58 56 59 57 54 53 56 60 61 63 66 68 73 75 78 81 84 88 92 93 96 97 99 105 108 103 103
52 50 51 52 51 52 54 56 59 61 59 59 57 52 54 55 59 62 65 68 70 72 72 74 79 83 87 89 92 94 98 100 101 106 108 106 108 108
41 49 52 52 52 52 53 54 52 53 53 54 56 57 58 61 65 67 70 74 73 75 76 78 83 86 90 97 97 99 100 102 107 108 109 111 112 112
39 40 41 43 43 43 46 48 50 54 56 57 59 60 63 64 66 69 72 77 79 83 88 88 89 92 95 98 101 105 105 108 109 110 114 114 117 116
44 43 42 45 46 50 54 55 56 55 58 58 66 68 73 70 74 77 82 82 86 92 93 94 96 98 99 103 106 107 109 108 111 115 119 120 122 123
51 51 50 53 52 52 54 56 58 57 56 65 67 72 80 78 81 86 87 91 93 97 104 101 102 103 105 109 112 111 113 113 116 122 125 125 126 123
57 58 57 57 59 62 62 62 64 63 68 70 72 75 79 83 86 89 94 97 100 101 103 104 106 110 112 114 114 116 116 116 126 129 130 129 128 125
69 66 66 67 66 67 69 70 72 73 75 77 80 82 84 86 89 94 97 99 102 104 105 108 111 113 113 113 114 120 122 124 131 134 131 128 126 125
67 70 70 71 72 72 73 74 75 76 77 79 82 86 88 91 94 97 100 104 106 108 114 116 116 117 117 111 113 121 125 128 132 132 131 128 128 124
71 71 72 73 76 75 75 77 80 82 84 86 88 91 94 97 100 103 106 107 109 114 119 119 116 115 118 120 121 124 126 131 130 129 130 129 125 125
65 77 79 80 80 81 82 83 87 89 91 93 95 98 100 104 108 108 111 115 118 118 119 115 116 119 123 120 124 126 125 127 131 135 131 125 124 122
71 87 85 89 89 90 91 92 95 98 100 102 103 105 107 110 113 114 115 115 118 117 117 122 120 122 121 124 128 126 130 129 129 128 127 124 121 117
83 89 94 101 100 101 101 101 102 105 108 109 110 113 115 112 113 112 119 122 117 120 124 120 125 126 129 130 127 128 127 127 131 126 122 117 116 113
88 96 100 101 100 102 105 106 108 111 109 108 114 112 111 117 117 122 128 126 128 124 127 129 132 132 132 128 130 128 129 127 122 120 119 112 111 106
102 102 102 102 105 105 109 113 108 111 111 113 115 118 122 120 127 129 130 128 126 129 134 135 137 137 135 129 128 131 121 119 115 113 113 108 101 95
101 106 112 111 113 115 116 109 112 112 116 117 121 125 128 129 131 129 129 130 133 135 136 139 138 134 126 124 115 118 119 113 107 105 103 98 92 87
112 113 115 116 116 117 114 111 111 116 120 120 126 128 131 130 129 131 136 135 134 136 138 134 124 123 118 111 108 109 109 105 96 94 92 89 83 77
104 103 102 101 105 108 114 116 117 121 125 127 129 132 134 133 134 135 136 135 135 133 129 124 117 110 107 106 103 99 96 92 87 87 81 78 74 69
102 106 107 114 117 118 117 124 129 127 128 129 129 132 134 135 137 137 135 131 127 124 117 111 107 104 102 98 94 90 87 83 79 75 72 70 67 63

GFSNE_250_spd_081.txt.gz
Wind_Speed
72 73 76 77 77 81 65 42 41 40 42 50 45 50 52 50 49 51 54 56 58 57 58 57 53 49 51 53 56 57 55 60 62 68 71 72 76 81
66 65 61 63 49 43 43 43 43 47 46 54 54 53 51 51 53 54 57 59 61 60 58 52 51 53 56 58 60 60 62 66 71 76 78 80 84 88
48 43 44 44 45 46 46 47 48 49 50 49 49 52 53 56 58 61 62 60 60 62 54 55 55 59 60 62 64 68 70 73 77 81 83 88 90 93
47 44 47 48 50 51 53 54 53 53 51 50 52 55 55 58 61 63 61 59 55 54 56 57 59 62 65 73 73 73 74 79 83 87 90 92 95 95
49 49 52 55 57 58 57 56 56 57 56 57 56 57 59 60 57 55 52 53 57 58 59 61 63 67 73 73 76 79 82 85 91 93 95 97 99 102
38 43 50 56 58 59 58 57 57 58 58 56 56 54 51 53 55 57 59 60 60 59 62 65 68 71 73 78 82 86 88 91 93 96 96 102 104 107
34 35 38 40 42 42 43 43 42 44 46 48 49 51 53 56 59 64 64 62 65 66 65 69 74 77 81 85 90 94 96 98 97 101 104 108 111 110
42 44 45 46 48 47 44 45 45 47 49 51 54 55 57 59 64 62 65 68 73 74 76 78 76 81 86 89 93 97 98 103 108 109 110 113 109 108
46 45 46 51 54 55 54 55 55 57 57 57 56 58 62 65 66 67 70 73 74 75 79 83 87 89 93 95 98 100 103 108 111 114 116 112 110 109
54 56 52 57 53 52 59 64 63 62 63 65 66 67 68 68 68 71 74 76 82 84 85 87 90 94 97 100 103 107 107 110 112 113 111 111 110 110
62 60 64 61 59 60 62 59 65 71 72 73 76 75 75 76 77 80 83 85 85 87 89 91 94 98 101 105 108 110 114 117 112 111 112 115 115 113
69 69 68 67 66 67 68 72 67 70 74 75 76 78 81 82 82 85 86 86 88 91 94 97 100 104 105 105 110 118 114 114 114 117 120 122 121 122
74 72 72 68 72 78 75 75 78 73 71 70 73 80 81 81 83 87 89 92 95 98 100 102 106 109 108 112 109 109 113 114 120 122 121 124 127 131
75 76 74 76 79 79 77 80 77 78 79 83 83 87 89 88 89 93 95 98 101 105 106 108 111 110 113 108 109 112 115 121 124 123 125 125 132 137
80 78 81 84 74 74 75 74 71 78 90 91 98 103 101 97 101 105 104 106 106 108 113 110 108 116 114 116 113 117 117 125 128 132 128 132 137 140
84 90 79 77 78 75 72 82 85 84 100 94 103 101 105 107 111 109 110 112 116 118 116 120 115 117 120 123 122 123 125 131 130 129 133 137 140 139
83 87 70 79 83 79 72 91 92 98 102 107 106 107 111 117 118 114 119 122 119 118 121 125 124 127 126 129 129 132 132 130 131 131 134 134 140 134
79 81 73 62 89 90 86 85 98 108 114 115 106 110 117 120 119 120 124 118 116 123 118 122 123 127 130 133 133 130 133 133 133 133 134 125 121 117
95 92 83 91 95 102 104 105 117 112 109 111 115 121 123 123 124 129 128 123 121 120 123 125 127 131 135 139 135 142 137 131 127 124 119 113 110 111
97 92 94 91 93 105 111 116 120 116 117 121 125 124 123 129 131 125 120 119 121 126 129 129 134 136 140 139 136 137 131 119 114 110 112 107 103 99
87 93 100 95 98 104 120 125 119 123 119 116 120 124 122 123 125 122 123 125 128 131 134 138 141 137 137 126 122 120 117 109 104 103 103 96 93 91
96 90 100 106 107 115 118 122 126 122 118 118 118 120 123 124 125 124 128 132 132 137 139 137 137 128 122 116 112 106 105 104 97 92 88 87 84 79
107 109 106 112 111 108 108 111 114 120 120 120 120 123 125 127 127 131 133 134 137 135 135 127 119 114 109 106 102 98 93 89 88 85 80 75 72 70

GFSNE_250_spd_084.txt.gz
Wind_Speed
70 72 71 73 73 74 76 77 77 80 79 74 60 50 50 50 49 53 54 55 53 52 54 55 57 59 59 59 59 54 53 55 57 58 60 62 65 69
71 70 72 74 76 77 77 69 65 57 53 58 54 54 52 52 55 56 55 51 54 56 60 61 62 59 58 56 54 55 58 60 60 63 66 67 71 74
63 67 69 72 70 61 57 57 54 50 47 52 51 53 53 55 55 54 53 57 58 62 62 63 61 58 54 56 59 60 62 64 67 67 71 74 77 79
42 43 44 44 46 48 52 55 54 55 53 55 60 57 56 56 56 60 59 61 62 66 62 57 57 59 60 62 61 65 69 70 70 73 76 79 81 83
34 45 52 53 55 53 53 54 57 57 58 59 60 60 58 59 59 61 62 65 59 55 57 60 63 65 67 68 69 71 71 72 74 76 81 83 86 89
31 34 35 36 39 40 42 44 45 43 43 42 41 44 45 48 53 56 57 57 60 62 62 65 67 67 67 73 75 75 78 80 81 82 86 87 90 93
41 40 38 37 37 37 37 43 45 46 47 47 46 47 48 50 54 56 57 60 63 65 67 69 73 75 79 80 79 77 81 83 85 89 91 93 96 101
44 45 49 49 48 46 46 44 42 46 47 53 53 56 59 61 64 65 65 69 71 74 75 78 81 80 79 79 79 81 84 87 90 93 96 100 103 108
53 53 54 58 58 57 55 51 51 54 52 53 51 56 56 64 69 72 73 76 77 78 79 76 74 72 75 79 81 83 88 93 95 98 101 105 108 111
58 62 62 63 65 63 63 61 58 61 62 63 62 60 64 67 64 70 77 80 80 79 78 80 83 85 85 86 88 91 95 98 99 103 105 108 109 111
63 67 68 64 63 68 67 68 65 68 67 68 73 74 71 73 76 77 78 82 83 82 82 82 83 85 87 89 90 95 101 101 104 107 110 109 109 110
76 74 76 66 66 68 70 72 73 73 71 69 71 74 81 82 77 82 81 77 80 80 83 86 87 90 97 96 95 100 106 106 106 110 112 112 114 111
76 72 70 70 71 71 71 74 79 82 75 79 76 83 80 79 78 70 81 84 87 90 91 94 96 99 100 102 105 112 115 115 113 114 116 117 116 118
71 72 68 71 73 75 76 82 86 83 84 88 89 82 77 69 71 80 86 89 91 101 107 106 110 108 116 111 114 120 121 122 121 123 124 123 120 122
78 75 72 72 74 81 88 90 83 81 89 86 87 83 80 66 75 87 92 96 105 112 113 111 115 122 120 120 120 126 128 131 128 131 129 125 125 128
62 93 78 80 86 85 86 87 85 83 82 80 91 82 86 75 82 92 100 101 110 118 119 117 121 127 125 121 127 134 134 137 135 130 125 126 131 134
85 86 90 94 88 87 89 84 83 77 95 86 79 85 87 97 90 94 105 117 123 120 117 124 130 128 127 129 135 138 137 134 127 125 125 125 129 134
97 101 106 99 99 100 93 100 101 106 98 96 97 91 101 100 110 105 112 113 117 121 126 125 130 135 140 139 136 131 131 130 129 127 122 122 128 137
117 115 111 119 117 114 119 122 117 113 101 105 102 96 101 110 120 119 122 126 129 131 133 137 139 141 144 146 139 133 130 128 120 120 124 126 124 126
100 105 107 110 113 118 120 112 106 105 109 110 110 113 114 116 120 124 127 130 127 131 136 138 138 140 140 134 134 134 130 119 116 120 121 119 112 108
93 95 98 99 96 100 101 100 103 106 107 113 114 112 119 117 122 127 129 129 135 137 134 133 130 129 128 125 117 116 116 117 112 106 106 105 103 100
91 91 93 95 96 96 105 107 110 112 113 114 112 112 112 118 125 125 126 129 131 136 135 134 124 120 115 113 117 111 114 113 107 100 94 91 90 88
90 92 94 100 101 108 113 113 111 111 109 108 109 112 116 120 123 124 127 133 130 127 124 116 114 116 116 108 109 103 103 104 98 97 89 84 81 79

GFSNE_250_spd_087.txt.gz
Wind_Speed
66 69 69 71 70 68 69 71 71 71 70 75 77 78 76 77 69 64 57 57 58 59 57 58 59 56 57 59 61 61 62 60 57 52 53 56 58 62
73 73 74 74 73 74 72 71 70 73 74 76 74 70 64 60 56 58 58 57 57 58 58 56 56 59 60 62 63 65 57 54 55 56 57 60 64 68
31 37 44 51 60 62 63 64 67 62 54 58 58 60 58 57 55 56 60 60 58 59 59 60 62 63 63 65 65 59 59 60 60 61 63 67 70 71
22 26 31 39 44 43 44 44 45 47 46 49 55 57 56 56 57 61 62 62 62 64 65 64 62 64 62 57 58 62 63 63 64 65 67 71 74 76
32 30 31 27 28 31 34 35 37 37 38 38 45 48 49 50 49 49 49 51 53 54 54 56 58 59 61 62 64 65 66 68 72 73 77 78 77 76
36 35 35 35 37 36 35 35 37 35 33 33 36 42 45 49 52 54 52 53 55 57 60 63 66 67 69 70 72 73 74 74 77 80 80 78 76 76
40 41 41 41 42 42 43 45 46 45 45 46 43 40 44 46 52 56 53 59 60 61 62 65 70 71 75 76 76 77 78 82 81 78 72 74 79 82
45 43 45 45 47 49 50 52 51 55 57 57 54 51 49 53 55 60 57 61 60 65 66 69 75 76 76 78 79 80 80 77 75 77 79 81 88 88
51 51 51 50 52 54 53 52 55 61 61 62 63 63 59 59 60 58 66 69 70 70 75 78 77 81 82 82 84 84 81 80 80 80 83 90 92 90
55 56 54 59 59 58 59 58 69 71 70 68 66 63 66 67 67 65 68 71 70 72 75 79 81 84 81 79 82 84 85 86 84 89 91 95 100 96
58 58 63 60 63 64 65 69 70 73 77 75 72 67 67 69 70 69 73 74 76 79 80 80 90 85 90 85 84 85 81 83 93 98 101 101 109 108
72 69 67 66 66 70 72 71 68 69 73 74 76 74 72 73 74 77 79 78 79 83 86 87 84 73 76 85 95 98 101 99 101 103 110 110 106 120
77 76 73 71 70 79 79 77 83 82 78 73 75 72 72 74 78 83 82 80 84 85 80 81 83 75 83 91 91 104 104 100 106 115 114 113 124 128
76 79 79 78 85 89 96 88 87 84 85 79 77 80 82 83 90 87 81 83 86 76 80 89 83 85 83 96 95 102 104 112 121 122 114 124 129 130
83 80 83 89 92 95 92 91 82 88 87 76 80 84 89 92 88 84 91 88 86 88 79 86 95 94 95 100 106 113 117 118 120 120 123 134 136 132
95 93 95 79 86 87 99 86 85 89 92 89 94 81 95 99 97 101 92 88 91 95 90 92 101 108 104 110 118 119 124 125 123 127 137 140 137 141
103 104 98 94 102 101 103 99 93 98 99 96 89 81 99 109 111 99 106 101 109 103 108 107 110 117 122 123 123 128 134 131 134 140 141 141 144 144
108 113 120 120 113 110 115 117 112 107 99 104 104 113 122 122 116 112 116 115 118 119 116 118 121 120 126 126 128 132 133 135 137 140 142 142 140 143
115 114 109 110 114 115 120 117 116 115 113 116 119 123 128 130 127 129 128 120 116 123 132 130 121 121 124 125 131 131 133 136 137 137 133 132 136 137
101 101 100 99 100 102 105 106 108 108 113 121 127 129 128 127 124 124 124 130 128 133 130 124 122 125 125 131 136 137 137 133 130 130 130 130 130 128
96 95 94 94 93 95 99 101 102 102 103 109 113 113 115 119 120 123 125 132 129 123 120 122 123 124 124 128 132 132 133 127 124 122 120 121 120 122
92 90 89 90 90 92 94 97 100 102 104 107 107 111 114 116 119 120 120 123 125 124 122 122 121 122 124 124 122 120 122 122 119 118 110 104 104 102
85 83 83 83 83 85 89 93 96 98 101 105 109 111 111 112 113 115 117 117 119 120 119 121 122 122 121 116 112 113 112 113 113 111 108 95 93 90

GFSNE_250_spd_090.txt.gz
Wind_Speed
58 57 59 60 62 65 68 70 72 73 72 72 70 72 75 76 74 71 69 70 66 63 60 58 56 56 60 57 57 60 60 59 60 60 60 52 50 51
31 44 55 63 68 71 73 72 71 68 64 67 68 70 71 69 63 59 58 59 61 61 59 60 59 60 60 59 59 61 59 58 57 53 52 54 55 57
20 19 19 21 27 32 36 38 42 45 45 48 47 48 47 47 50 52 55 58 59 61 61 61 59 57 56 56 54 53 53 53 55 57 58 60 60 61
23 25 25 26 25 24 23 23 26 30 30 35 40 41 40 42 42 43 45 46 46 47 48 48 49 50 51 52 52 54 58 60 61 64 65 67 67 68
28 31 33 33 34 33 31 32 31 30 27 25 32 36 37 40 41 43 44 43 42 45 46 49 52 53 54 56 58 58 55 57 63 68 69 68 68 69
36 35 35 37 39 39 40 40 38 37 36 35 37 40 42 48 48 49 49 50 49 50 48 50 51 54 55 60 61 64 65 68 72 73 74 74 71 72
41 42 42 41 42 42 40 42 44 43 45 46 44 45 48 52 55 59 57 59 56 57 57 58 57 59 62 65 66 69 70 73 75 76 77 72 70 71
47 48 49 49 48 48 48 48 47 46 45 46 45 45 48 54 62 66 66 64 63 73 71 63 67 65 64 66 69 73 76 78 81 78 78 74 76 78
51 53 53 54 54 54 53 55 54 52 54 57 51 53 55 64 62 65 67 70 72 73 69 68 69 67 68 70 74 77 77 80 78 78 77 75 78 85
56 57 57 59 61 61 59 56 58 60 64 60 56 57 57 64 69 71 73 70 69 71 73 72 75 77 77 75 76 79 82 84 83 77 74 79 82 90
63 63 64 64 62 66 64 63 63 68 65 66 68 68 67 69 71 80 78 79 76 71 71 75 77 81 81 84 80 82 84 87 86 83 84 78 86 91
68 70 69 66 68 67 70 74 75 71 68 70 69 71 80 77 78 82 78 80 76 76 75 78 81 83 85 87 88 91 86 89 83 88 89 89 95 92
72 73 75 75 72 75 78 81 81 78 73 72 69 87 82 82 90 79 78 81 76 78 83 84 88 92 95 89 91 90 95 92 86 90 101 97 98 99
79 77 79 76 79 83 84 86 79 87 84 80 77 75 85 88 85 81 83 82 85 85 86 93 98 90 91 90 91 95 102 90 96 101 101 96 111 113
88 88 90 90 88 88 92 88 86 88 88 87 91 96 92 91 98 97 88 88 89 89 91 97 102 104 103 100 102 101 107 108 104 111 104 119 119 118
95 96 87 83 83 87 90 88 90 96 103 103 104 103 104 102 105 101 95 100 109 108 108 106 107 116 115 120 124 119 114 122 119 113 125 119 116 133
92 93 95 99 100 101 99 103 107 109 110 112 111 112 112 111 109 116 115 112 116 111 112 118 119 119 124 121 122 123 128 129 127 130 131 129 138 133
99 102 106 107 106 106 107 108 111 114 116 117 119 120 120 118 120 120 124 126 120 128 132 129 127 128 123 125 130 130 136 134 136 139 135 136 139 137
109 109 110 110 112 113 113 114 115 114 114 114 114 116 116 117 118 121 126 130 134 136 138 137 135 129 128 131 137 138 134 143 141 136 134 138 138 144
110 109 109 110 112 113 112 112 110 108 107 108 108 107 107 109 111 113 115 117 120 120 123 124 124 125 126 134 139 139 140 140 136 132 132 136 138 125
111 110 108 107 107 107 106 105 103 101 101 102 104 104 104 106 107 109 111 113 116 117 119 120 121 124 125 127 131 133 133 131 127 125 122 122 120 113
108 106 106 104 103 102 101 102 101 99 97 95 94 96 97 97 101 105 108 109 111 112 114 116 119 120 123 123 123 124 122 121 114 110 105 104 104 107
104 104 103 104 103 101 99 96 95 92 89 87 87 88 90 91 93 96 99 100 102 105 108 109 109 110 110 106 102 105 108 108 107 105 101 97 95 93

GFSNE_250_spd_093.txt.gz
Wind_Speed
55 56 54 56 57 55 55 59 59 59 60 62 65 68 71 73 75 76 75 72 74 70 62 52 51 53 54 56 55 53 52 51 49 51 54 48 45 46
34 43 50 52 51 53 59 61 63 64 65 68 69 71 72 72 73 68 65 62 53 49 50 52 53 50 46 41 41 44 43 45 45 45 46 47 49 49
24 25 25 24 23 23 23 26 28 31 33 42 43 46 44 46 47 46 46 47 45 41 42 42 43 44 43 44 45 44 45 45 46 48 51 51 48 53
24 25 25 26 29 29 30 29 30 29 25 28 31 31 32 32 34 34 35 35 35 41 41 42 44 46 45 46 46 47 49 49 49 51 54 55 57 60
30 30 29 31 34 34 34 36 36 36 35 33 38 37 38 39 39 40 41 40 42 43 46 49 51 52 51 53 54 54 55 56 55 58 58 59 60 64
37 39 38 38 40 40 40 42 41 40 40 39 43 47 45 51 47 51 48 49 49 52 53 56 57 57 57 58 62 65 64 64 65 62 61 62 65 68
43 43 43 44 46 46 46 50 49 48 48 47 44 47 51 53 51 53 54 59 58 54 55 59 58 56 60 64 67 67 67 66 68 67 67 69 68 68
50 50 53 50 51 52 54 54 53 54 55 55 53 51 53 56 56 57 60 61 58 63 58 61 66 66 67 68 67 70 70 68 71 72 74 75 75 71
55 56 57 57 60 58 60 59 58 59 60 61 60 60 59 59 60 62 67 64 64 68 69 64 64 68 74 72 71 71 74 77 75 76 77 78 78 79
63 65 62 61 62 60 60 62 64 67 67 66 67 64 66 65 67 69 73 73 71 72 76 76 78 76 82 73 72 74 75 78 81 81 80 81 84 81
68 65 61 61 58 66 68 68 70 70 70 68 70 68 71 70 70 74 70 73 74 75 75 80 78 80 82 76 73 74 76 78 83 86 88 87 87 88
66 64 65 68 69 69 69 69 68 70 70 71 76 75 75 77 74 76 76 74 76 77 79 81 83 79 86 81 78 82 86 84 89 92 90 95 99 97
74 74 73 74 74 71 73 75 78 79 79 80 81 83 83 81 88 85 87 90 86 85 87 91 86 92 93 94 99 99 97 102 98 96 96 93 102 105
79 79 78 76 76 78 81 78 80 82 83 85 86 87 88 88 92 92 94 94 96 91 90 95 98 102 105 103 106 105 108 111 108 99 98 107 112 115
83 85 85 85 87 84 84 83 84 91 92 94 99 98 91 89 90 94 98 98 100 101 103 105 108 109 109 113 115 111 113 116 112 109 114 117 121 120
90 91 89 89 88 90 92 94 93 95 97 97 98 95 98 98 103 104 105 107 108 112 114 114 116 118 118 119 120 118 115 118 122 120 125 126 125 128
93 94 95 95 94 99 98 97 99 103 106 106 105 105 108 111 112 112 111 112 112 114 115 117 117 119 122 124 125 125 126 124 125 132 133 135 141 139
101 98 99 102 105 102 104 108 112 110 109 108 109 110 112 112 112 113 111 111 112 114 114 114 116 117 118 119 123 128 131 133 134 137 140 139 140 140
107 106 110 110 110 110 116 110 112 111 109 108 108 108 110 111 109 108 110 111 111 111 110 110 110 110 110 111 113 115 119 123 125 126 129 129 131 129
113 116 116 115 117 117 115 114 111 109 108 109 109 108 110 108 108 107 106 105 105 105 107 108 110 110 108 109 110 112 115 116 118 120 121 125 123 122
122 122 121 121 118 116 113 112 111 111 111 110 108 106 104 103 103 103 103 103 102 103 103 102 102 102 103 104 105 105 106 108 109 111 113 113 114 113
123 123 120 117 114 112 112 112 110 108 107 107 105 104 103 101 100 99 97 96 94 93 94 94 95 95 94 95 96 97 97 96 97 96 98 97 100 103
116 114 113 111 109 108 108 107 105 103 102 101 100 98 97 94 94 93 93 93 92 92 92 92 93 93 93 93 94 95 95 96 96 93 92 94 95 94

GFSNE_250_spd_096.txt.gz
Wind_Speed
59 60 58 56 60 60 60 59 58 59 61 61 61 61 63 65 65 66 68 70 71 74 77 75 74 72 65 55 53 56 53 47 44 42 41 41 42 42
56 60 61 64 66 66 67 67 69 68 70 70 69 68 68 70 71 72 72 73 72 71 68 65 59 53 50 46 43 42 42 43 44 43 43 44 45 46
52 47 45 43 42 43 42 38 36 36 35 40 40 41 42 44 46 47 49 51 51 49 50 49 43 38 41 41 42 43 45 47 47 46 46 45 50 51
34 34 32 33 34 33 32 34 35 35 36 40 40 41 41 41 41 40 40 37 38 41 43 43 44 44 42 43 48 51 50 51 53 55 57 57 57 59
35 37 38 37 37 37 37 37 38 38 38 40 46 46 47 48 49 50 50 46 46 48 50 51 54 53 52 53 54 41 46 48 52 55 57 59 61 61
41 42 42 41 41 42 43 45 43 44 44 44 49 52 51 55 53 54 53 53 55 57 57 57 57 58 59 59 58 59 63 62 62 56 59 66 65 66
46 46 46 45 46 47 46 50 51 49 50 52 52 55 58 59 59 58 57 59 58 60 60 61 61 63 63 64 60 61 60 58 64 69 73 73 67 67
53 53 53 54 54 53 53 54 55 56 58 58 58 58 61 62 62 62 63 64 61 66 67 63 67 68 67 71 71 71 73 78 73 70 71 71 68 67
57 59 60 61 60 60 61 62 62 65 63 65 63 57 57 63 67 70 69 69 68 72 72 72 78 78 76 78 78 79 79 78 78 77 79 80 71 75
63 62 63 63 62 64 67 69 70 70 68 64 62 63 66 66 68 71 73 73 71 72 75 78 82 83 81 81 82 82 83 83 84 86 85 87 85 87
66 64 65 68 71 73 75 74 72 71 65 68 71 71 68 67 66 69 69 71 72 76 78 81 83 90 88 87 86 80 82 85 85 86 88 91 95 94
70 70 73 74 76 75 72 73 70 72 75 76 77 77 74 73 74 74 74 77 79 82 84 87 89 89 91 92 95 93 91 89 91 88 92 95 98 99
79 79 80 78 75 75 76 76 76 78 80 81 81 82 83 83 83 82 82 83 87 91 92 95 95 93 93 95 100 100 102 100 98 97 100 102 102 104
78 77 77 78 79 80 80 82 83 85 85 87 88 88 88 87 87 88 90 93 96 96 98 98 99 98 97 100 103 105 107 107 108 112 111 110 112 113
87 88 88 85 85 87 89 89 90 92 90 90 91 91 94 94 94 96 97 98 95 99 103 106 108 109 108 111 112 115 117 118 118 119 120 121 122 123
92 91 91 92 92 91 91 95 91 91 94 94 96 98 99 99 99 102 102 103 105 112 114 112 114 117 117 118 121 123 123 124 122 121 122 122 121 123
100 101 101 103 101 103 104 105 104 106 107 104 103 104 108 107 110 111 113 113 117 116 115 116 115 114 115 115 116 117 117 117 117 117 118 118 117 116
108 108 108 108 106 112 113 114 116 118 119 113 110 113 116 117 119 120 121 123 122 120 119 115 112 111 111 111 110 110 109 109 109 109 111 111 110 109
109 107 106 104 108 107 112 116 119 117 115 114 119 119 121 124 124 127 121 118 115 113 111 108 108 109 107 104 106 107 107 106 106 107 108 108 107 105
110 112 114 116 118 120 123 123 123 118 118 121 123 123 126 124 118 115 114 112 110 107 106 106 104 103 103 105 105 104 103 102 102 101 101 99 98 96
118 119 121 124 126 130 130 128 124 123 125 124 124 120 118 115 111 109 107 106 104 105 103 100 100 97 97 95 96 96 94 94 96 98 98 97 96 93
127 130 131 132 129 131 127 123 121 120 122 121 118 116 113 111 108 105 104 102 101 99 95 93 91 90 90 89 88 87 86 86 86 88 88 89 90 90
133 133 133 135 129 123 122 122 118 118 116 114 111 110 108 107 105 101 98 95 90 87 85 83 83 82 82 81 82 80 79 79 78 78 80 81 80 80

GFSNE_250_spd_099.txt.gz
Wind_Speed
58 59 60 60 57 60 63 67 66 65 62 62 62 63 63 63 65 64 67 70 69 69 70 72 73 71 71 71 70 65 60 55 52 44 42 43 43 43
65 65 67 71 69 67 68 68 67 65 65 67 70 74 74 71 68 64 62 61 64 65 65 65 64 63 61 57 56 56 52 45 43 43 46 47 48 49
69 67 65 64 67 68 63 63 65 70 61 51 45 44 41 41 41 41 42 43 45 50 50 50 49 49 48 48 47 47 45 48 47 50 54 57 55 52
71 72 70 66 61 60 57 53 47 43 42 44 42 41 42 42 44 44 45 46 47 51 51 53 53 53 53 52 51 52 53 55 56 59 55 50 54 60
56 50 49 49 51 49 47 46 45 43 43 45 48 44 45 48 47 50 51 50 52 55 55 56 57 57 57 57 58 58 58 59 62 62 63 62 66 68
48 48 48 49 49 48 46 46 46 45 44 45 48 51 52 54 52 55 56 57 60 61 61 63 63 63 62 61 60 62 64 67 67 69 68 66 68 70
49 50 50 51 49 49 49 51 52 52 53 53 53 56 58 59 59 61 62 63 65 64 65 66 68 70 68 66 67 68 69 68 69 72 76 75 74 76
53 52 52 53 55 56 57 57 58 59 61 61 61 60 61 64 66 66 66 69 64 63 65 70 73 72 72 70 69 71 73 72 76 76 76 77 77 76
56 56 56 57 58 58 59 61 65 65 65 66 64 64 64 67 69 70 68 64 66 66 71 72 71 73 72 72 72 71 74 79 79 81 84 83 85 86
62 61 62 64 63 64 67 69 71 69 69 68 69 71 72 73 70 69 67 70 72 75 74 75 76 79 79 80 78 78 80 83 86 87 88 91 92 94
65 67 68 67 69 71 72 74 74 71 70 73 74 76 78 78 77 76 73 77 77 79 79 81 82 87 88 87 87 84 85 86 90 93 94 95 94 95
69 68 69 67 69 72 73 72 75 76 77 78 80 81 79 78 81 80 81 82 84 83 84 85 85 89 91 90 90 91 93 97 100 101 100 101 100 99
73 73 74 72 72 74 77 80 81 82 85 86 86 85 83 82 83 85 88 86 85 88 91 91 93 92 91 95 97 98 100 101 101 102 102 104 108 109
80 77 76 77 79 81 84 86 89 87 88 89 88 88 89 90 91 94 92 91 93 95 99 102 104 107 104 102 106 107 106 108 108 109 113 115 116 116
86 85 88 89 88 87 87 89 92 93 95 94 94 96 97 97 97 99 101 104 107 113 114 117 119 116 111 112 111 111 113 118 117 120 120 121 121 121
93 93 93 95 97 97 98 97 98 100 98 99 102 105 105 109 108 108 110 104 108 111 113 113 113 112 115 119 116 119 122 126 126 122 121 119 121 121
97 97 98 100 101 99 101 105 104 106 111 109 109 111 114 116 114 111 109 110 114 118 121 121 116 119 123 122 121 121 117 114 115 116 117 116 114 114
101 102 104 105 108 109 110 114 114 114 114 113 112 113 115 114 114 116 116 121 128 126 126 124 121 121 122 121 117 115 112 112 112 112 110 109 109 109
107 108 109 110 116 116 116 120 123 121 122 121 121 124 122 121 123 124 127 133 130 127 122 121 122 119 117 113 111 109 108 107 106 105 103 101 100 99
110 114 118 119 118 121 125 127 128 128 128 127 128 126 125 127 129 131 131 127 128 123 123 118 114 111 110 109 109 106 104 100 96 95 92 90 89 90
128 129 130 129 128 128 127 131 132 131 132 133 133 133 133 135 132 129 130 125 122 118 115 113 110 108 107 104 104 102 94 93 91 90 88 86 84 83
136 135 134 135 138 134 130 129 131 132 133 133 133 132 133 128 125 126 122 117 115 111 109 108 106 104 100 99 94 90 89 89 89 87 85 84 83 82
137 141 140 136 134 131 132 135 137 136 132 133 130 127 127 125 121 118 114 111 109 109 107 104 103 100 94 90 88 87 85 83 84 84 83 82 81 79

GFSNE_250_spd_102.txt.gz
Wind_Speed
43 46 51 55 55 55 59 59 61 65 64 68 64 66 64 62 62 64 64 69 73 61 58 55 54 54 51 51 52 53 55 58 59 57 56 55 51 47
51 53 55 55 58 63 61 61 62 62 66 68 70 64 62 56 61 51 44 43 42 41 40 42 44 45 46 46 48 49 50 51 51 49 49 49 50 51
55 59 62 62 64 63 62 62 63 63 65 63 65 58 62 60 46 42 41 42 43 43 43 44 47 48 48 49 51 51 51 53 55 56 58 58 59 61
63 63 63 64 65 68 69 70 68 67 70 67 63 51 46 44 45 45 44 44 45 48 48 49 50 52 53 54 56 57 58 59 58 59 61 63 64 65
64 66 66 67 66 62 64 68 68 61 55 49 45 46 48 45 47 48 49 49 51 52 52 54 56 58 59 61 60 55 57 59 62 65 65 65 67 67
66 67 67 70 73 74 68 57 49 48 47 49 52 52 51 51 52 54 55 55 57 56 56 58 61 60 62 60 55 55 58 64 65 65 65 68 69 70
57 56 57 54 52 50 51 51 52 53 53 52 54 53 56 58 58 60 59 61 62 60 59 62 65 64 63 60 60 63 64 65 65 67 68 67 70 71
50 52 52 49 51 52 54 55 54 55 59 59 59 61 62 62 65 66 65 63 64 66 68 71 71 69 67 68 67 69 70 69 71 73 74 79 82 83
50 51 53 53 54 57 60 59 61 61 61 63 64 65 65 66 68 67 67 68 71 71 71 73 74 75 77 74 75 73 74 78 78 80 83 83 86 88
56 55 53 55 59 62 63 63 65 66 68 67 67 68 71 71 70 72 72 74 76 75 75 75 77 78 77 78 78 80 84 81 81 83 85 90 91 91
63 63 64 63 65 67 68 68 68 67 67 69 72 71 72 74 75 76 75 76 77 78 81 85 83 80 80 83 87 89 87 88 89 93 97 98 96 97
61 67 69 68 70 73 74 73 71 73 71 72 73 74 77 78 79 78 81 82 85 85 86 87 85 86 87 91 93 95 97 98 105 110 107 105 108 109
68 74 76 78 78 77 76 75 76 76 74 74 73 77 78 81 82 84 84 87 91 91 90 91 94 95 98 101 105 110 109 110 110 110 110 110 111 111
75 73 73 74 74 76 80 80 82 81 80 83 83 86 89 92 93 93 94 95 94 96 97 99 101 108 111 112 110 109 109 111 113 115 116 122 118 119
76 77 74 80 80 79 79 82 88 90 92 93 93 93 94 96 97 97 101 100 98 102 106 107 111 111 113 113 116 114 114 116 120 123 124 122 121 120
78 73 78 79 83 87 90 93 95 98 100 99 101 102 101 100 104 106 106 108 111 116 117 118 119 119 120 118 122 122 123 123 126 123 124 123 121 117
80 87 84 93 97 99 102 99 100 99 102 103 103 103 107 109 110 109 112 116 119 118 122 125 127 125 128 127 128 129 129 129 125 122 118 116 114 111
87 90 92 97 95 101 105 102 103 103 105 109 110 107 107 110 113 114 120 124 123 129 130 132 134 132 131 129 134 131 126 123 121 117 113 112 111 108
99 101 103 106 106 105 109 112 114 111 113 113 119 119 119 119 121 127 130 134 134 136 139 136 133 135 138 130 130 123 121 118 113 111 110 108 107 105
110 108 111 116 116 115 121 121 122 124 126 130 130 131 131 134 137 138 140 143 145 143 143 143 144 135 132 131 127 117 113 113 111 108 107 104 103 100
122 121 122 121 123 121 125 129 131 133 135 136 139 142 142 145 148 149 144 143 145 137 139 141 137 130 126 120 116 114 110 110 108 105 103 100 97 94
125 125 127 127 130 134 136 136 137 136 137 140 144 146 148 148 148 148 146 136 143 143 144 135 130 125 118 116 112 110 109 107 103 99 96 94 93 91
130 132 134 135 136 137 139 141 143 143 141 144 145 144 145 149 146 145 144 145 145 134 131 128 119 117 112 111 108 104 103 100 97 94 91 89 87 86

GFSNE_250_spd_105.txt.gz
Wind_Speed
33 39 40 41 44 47 48 49 47 50 49 47 53 54 57 61 60 57 62 63 68 53 47 40 37 36 37 38 38 41 43 45 46 47 48 50 50 50
38 39 39 42 45 49 53 50 51 50 55 57 57 62 61 56 55 59 61 59 50 44 41 40 41 41 41 41 41 43 45 48 49 52 53 54 52 50
39 40 47 49 48 51 51 49 50 54 55 58 56 56 56 56 64 70 52 49 46 44 45 45 46 46 46 47 46 49 51 52 54 56 55 53 51 52
45 48 50 53 54 53 54 56 57 59 60 62 64 68 68 67 60 46 45 47 50 49 48 49 49 50 51 53 56 57 57 58 58 57 55 54 53 54
52 52 53 56 56 56 58 60 61 63 65 64 64 64 62 50 47 49 50 51 53 52 53 54 54 55 55 58 58 57 57 60 59 59 60 60 62 63
56 56 58 61 61 62 63 63 63 65 66 68 69 55 50 47 49 54 54 54 56 57 58 59 59 60 61 63 63 64 63 61 59 61 63 64 64 67
61 62 65 66 68 65 63 65 65 67 66 59 54 53 53 55 57 58 58 59 60 62 64 64 67 68 70 68 65 65 65 64 66 69 68 68 71 72
56 62 67 70 72 70 70 69 66 59 54 53 55 55 58 58 59 61 62 65 64 66 70 72 73 73 70 66 66 67 68 70 71 72 73 72 74 78
52 51 51 53 55 57 57 56 55 54 56 57 60 61 62 62 63 66 67 68 69 72 75 76 73 72 69 68 70 72 74 77 76 75 74 76 79 83
59 57 56 57 58 57 55 56 56 58 61 63 63 62 62 63 65 67 70 73 74 74 76 75 74 70 70 70 75 76 78 78 78 81 83 87 91 98
64 61 60 61 61 61 59 61 63 63 63 62 63 65 67 67 70 71 73 76 75 74 76 75 74 76 75 78 80 80 84 86 88 89 93 97 100 106
68 67 67 64 61 63 65 65 66 67 68 70 72 73 73 73 74 78 79 80 81 77 78 81 81 82 84 86 89 92 90 91 95 97 101 106 109 115
73 72 70 70 73 73 74 74 74 76 76 76 77 78 80 82 81 83 82 81 82 87 89 92 90 89 92 91 96 97 99 102 105 107 110 115 118 120
71 74 75 75 78 78 80 81 79 80 79 80 81 82 81 82 83 81 82 86 88 91 94 95 96 99 96 98 102 104 105 105 109 114 120 122 124 124
60 68 74 73 75 76 76 79 79 78 77 79 81 84 78 80 83 88 88 92 96 98 98 97 98 100 104 106 106 108 112 116 122 126 127 132 129 136
63 68 72 75 75 77 77 78 79 82 86 87 86 87 85 93 94 94 98 103 104 103 99 100 103 105 109 115 118 119 125 128 130 136 138 138 142 144
72 77 77 80 82 81 82 86 86 89 86 83 88 94 99 99 100 103 101 103 101 109 113 115 118 119 122 125 132 132 132 136 140 144 144 146 144 146
86 84 89 93 91 93 89 96 98 95 93 94 98 101 107 107 104 105 110 112 113 116 123 124 126 127 132 132 131 137 139 144 144 148 148 148 144 142
94 95 97 97 101 91 95 94 101 101 104 107 106 106 106 111 112 113 119 119 124 125 130 131 133 135 138 138 145 146 147 147 152 147 144 141 140 131
102 97 100 105 105 108 111 109 111 110 110 110 112 115 121 124 119 121 125 129 133 134 136 138 139 143 147 150 153 151 149 150 147 144 138 130 130 123
106 110 107 105 106 109 114 113 118 121 122 123 125 124 126 128 130 131 134 136 138 138 139 142 145 148 147 150 149 150 154 147 142 132 130 126 121 116
110 111 114 116 117 120 118 118 122 123 123 123 127 131 131 133 135 137 138 139 142 147 152 154 151 152 153 154 152 147 139 134 125 122 123 119 114 111
119 117 119 120 122 123 125 128 129 129 130 130 130 132 135 136 136 140 145 150 150 144 149 156 155 156 153 146 139 132 127 125 120 115 112 110 106 102

GFSNE_250_spd_111.txt.gz
Wind_Speed
31 32 36 33 38 39 41 42 41 46 58 59 58 53 50 44 40 40 38 41 43 48 48 50 53 52 53 52 52 54 47 41 40 41 41 41 41 44
33 31 33 35 36 38 42 36 38 49 57 62 61 58 54 52 49 45 41 43 48 49 51 52 52 54 53 54 58 49 45 42 43 45 45 45 46 48
36 32 32 39 39 32 40 36 40 44 54 57 58 54 56 58 57 57 53 53 52 53 54 53 58 56 56 57 61 48 45 45 46 49 49 50 52 52
40 37 34 39 40 26 34 38 39 44 51 51 55 61 60 58 52 51 52 55 58 55 52 58 60 61 62 63 62 47 49 52 53 54 54 55 55 56
43 39 41 40 42 31 32 34 41 48 54 55 55 54 54 54 53 53 54 59 61 58 60 61 64 65 65 66 56 52 54 57 57 57 57 57 58 59
42 43 43 45 44 43 41 43 51 56 56 57 59 59 60 59 57 58 60 63 60 61 63 65 66 65 65 62 55 56 58 59 58 59 59 59 61 60
43 43 47 46 51 51 51 53 56 59 61 62 61 59 60 62 61 64 66 64 65 67 69 68 68 68 63 59 60 58 60 60 59 60 60 63 63 63
48 49 47 53 51 57 60 62 64 66 65 66 66 64 65 65 67 68 70 73 71 72 72 70 70 64 61 62 61 62 63 63 62 65 66 66 68 68
53 55 51 55 57 57 60 66 70 71 72 72 72 73 75 75 73 73 73 75 74 76 77 74 69 66 65 65 64 65 65 67 69 69 74 72 73 73
58 58 55 55 56 60 64 63 71 74 73 74 75 76 76 77 77 76 78 81 81 77 72 68 69 68 69 69 66 66 69 72 74 77 78 79 77 77
62 62 63 61 60 60 64 70 70 70 77 79 76 78 79 81 83 84 81 77 74 72 72 72 71 72 71 68 68 72 76 81 81 83 83 81 81 84
64 64 68 69 66 65 65 67 72 75 74 74 77 83 84 83 80 77 76 74 73 75 75 74 75 75 74 75 77 80 84 86 88 90 87 90 91 88
67 69 70 72 73 73 71 69 71 76 80 80 80 80 79 78 80 81 80 81 80 80 79 81 78 77 80 80 82 87 92 94 96 93 88 92 94 94
74 77 79 81 79 77 77 76 74 75 79 84 85 86 85 84 84 84 84 84 84 84 82 80 81 82 85 88 91 94 96 96 96 97 94 97 99 100
67 73 77 86 83 81 85 80 81 79 79 84 89 89 91 91 90 89 90 89 89 88 87 87 87 88 91 95 98 100 96 93 95 97 100 102 103 105
76 78 77 79 79 85 88 85 85 84 83 83 87 86 88 89 90 90 87 88 86 88 89 90 93 93 93 97 96 95 97 97 100 102 104 109 110 113
88 86 89 89 87 83 88 90 89 89 87 85 88 87 85 84 84 89 91 90 87 88 92 93 96 98 99 98 99 99 100 107 109 112 112 113 116 120
88 82 81 83 81 82 86 91 91 93 91 88 87 85 88 90 90 93 92 95 97 96 95 97 97 99 99 98 101 105 110 110 113 112 114 122 125 126
90 92 89 91 96 91 87 91 92 95 94 94 91 90 89 87 89 91 97 94 93 94 97 99 101 104 107 108 111 116 118 117 115 118 121 126 131 136
97 94 95 90 89 92 90 94 98 99 100 97 97 97 99 97 93 96 95 96 99 102 105 104 104 106 112 118 117 119 118 121 122 126 129 135 137 138
103 106 106 102 93 91 90 95 103 105 104 103 103 105 106 107 109 104 107 104 106 109 112 112 113 116 119 121 122 127 126 128 131 132 136 142 144 144
110 108 110 105 103 100 99 99 102 112 109 109 110 115 113 113 116 115 114 116 117 117 116 119 122 122 123 123 128 132 136 138 139 143 144 146 148 154
119 115 111 112 110 107 106 109 108 110 112 115 115 117 120 122 124 124 121 124 123 121 124 127 125 125 129 133 136 137 139 143 144 147 146 147 151 152

GFSNE_250_spd_114.txt.gz
Wind_Speed
38 34 31 31 37 37 34 32 36 41 44 46 46 49 55 57 60 54 50 45 45 47 49 44 44 44 48 49 48 46 46 45 49 46 45 45 42 39
40 38 34 32 36 38 34 33 35 46 49 51 50 48 48 58 62 61 57 48 49 50 51 47 44 45 48 50 50 50 50 50 52 52 48 47 46 45
42 41 41 36 35 39 35 39 38 40 47 48 49 52 53 57 62 66 61 56 55 54 50 49 50 53 52 52 52 52 55 54 54 54 54 50 49 50
45 43 44 43 37 39 37 40 43 39 38 48 47 46 57 54 62 66 63 64 62 64 61 59 62 61 56 57 56 57 58 58 58 58 55 54 52 52
46 46 47 47 41 42 42 39 38 35 38 41 43 43 49 55 62 64 63 66 65 66 67 65 60 57 56 59 58 60 60 61 62 62 60 57 55 55
51 52 52 47 42 41 47 43 43 44 43 48 48 49 48 51 57 61 62 66 67 68 64 60 59 59 59 61 61 64 65 65 66 64 62 58 59 57
58 56 55 53 45 44 49 50 46 47 44 42 47 52 55 55 58 60 61 61 64 62 63 64 65 64 64 64 67 68 68 69 67 65 62 62 62 62
66 60 59 58 55 49 49 53 53 52 52 53 57 59 60 66 66 67 70 68 69 71 70 69 68 68 70 69 68 71 72 70 67 65 64 66 67 65
69 67 66 67 65 57 52 57 56 58 61 63 64 65 67 70 73 71 74 73 73 71 72 72 72 74 72 74 74 75 71 70 71 69 69 69 70 73
69 74 72 69 61 59 54 56 63 61 60 67 70 70 70 72 73 75 77 77 76 78 78 79 81 80 78 77 78 76 75 77 75 74 71 72 74 76
78 88 71 62 61 63 65 66 65 66 67 64 66 71 73 76 77 79 80 79 80 81 80 81 79 79 80 82 81 82 82 80 77 75 73 75 79 81
89 79 79 69 64 69 73 71 68 68 69 69 69 68 73 77 79 82 85 86 86 85 82 83 86 89 89 89 91 86 82 80 80 78 75 79 82 86
75 75 70 67 70 67 66 70 70 70 73 73 73 70 72 74 77 82 83 82 85 88 89 90 90 89 88 87 84 84 84 84 85 83 82 84 88 93
83 81 82 74 74 74 75 76 73 73 75 78 79 79 77 78 77 77 78 82 86 88 88 88 89 89 90 90 91 90 91 90 89 89 91 93 96 100
90 85 87 81 77 77 81 83 82 77 79 81 85 83 84 84 82 82 81 83 86 91 95 96 97 96 95 95 95 95 97 97 95 94 96 99 99 101
87 84 85 82 79 79 83 84 84 83 87 85 88 90 91 86 87 88 89 90 90 92 94 98 103 101 101 100 99 97 99 101 99 102 100 100 102 102
88 91 90 84 75 87 86 88 89 90 89 90 93 94 95 93 93 94 96 96 95 94 96 99 100 103 108 106 106 107 108 106 107 107 105 107 107 109
91 92 93 90 89 92 98 98 91 94 91 89 87 87 89 91 92 96 98 99 101 100 100 103 102 105 103 107 108 108 108 110 109 110 109 110 114 113
91 93 94 88 92 94 93 96 98 99 99 94 93 91 88 89 92 93 96 100 103 104 102 103 105 103 101 103 108 111 111 114 113 115 116 117 120 120
99 101 102 100 102 102 102 104 107 108 107 105 97 94 96 97 98 100 100 101 104 107 110 108 108 110 108 105 106 109 114 114 114 116 116 119 122 123
101 107 109 113 117 116 113 109 109 105 104 104 102 105 105 105 104 98 96 99 101 105 110 113 111 113 115 116 115 117 119 121 121 122 125 126 126 126
103 109 115 117 117 118 117 118 115 118 116 117 118 116 112 109 110 105 104 98 102 109 112 115 117 119 120 120 121 124 124 126 129 130 134 134 135 139
106 108 111 117 122 122 122 123 124 124 125 124 122 119 120 118 114 113 113 112 109 105 109 114 120 122 123 124 127 129 130 132 136 135 135 137 137 141

GFSNE_250_spd_117.txt.gz
Wind_Speed
42 36 35 35 36 32 32 30 36 37 37 40 38 41 41 43 54 58 56 58 54 55 55 48 48 42 45 47 47 49 49 49 49 45 44 45 46 42
45 43 39 39 38 36 34 33 33 38 42 41 38 39 44 50 50 51 55 58 58 62 61 59 57 46 48 52 54 55 54 56 49 49 48 51 49 46
48 48 42 43 42 41 40 36 35 37 43 42 36 38 45 49 54 54 55 51 57 62 67 63 60 57 52 56 59 61 55 55 57 58 54 53 53 52
53 52 52 49 46 45 43 41 36 37 42 47 42 41 44 55 55 56 58 55 55 58 64 63 64 60 57 56 59 62 64 63 66 58 55 56 54 55
55 54 55 52 48 46 44 45 38 36 39 48 49 43 41 43 50 56 54 57 59 59 60 64 63 63 65 64 65 66 68 64 59 59 59 57 58 58
59 57 55 53 50 48 50 47 44 38 39 47 49 48 43 46 51 57 61 55 53 63 62 65 66 67 68 71 65 68 66 62 62 64 64 64 61 61
54 55 53 53 56 52 55 53 52 45 37 43 54 48 47 47 54 58 56 53 52 55 58 67 73 70 70 69 74 75 70 66 69 67 68 69 68 66
53 58 57 57 53 59 62 62 56 56 50 44 50 58 54 50 53 53 61 55 56 57 60 62 68 72 73 74 73 70 71 73 73 73 73 74 72 69
51 69 60 60 63 62 60 65 66 63 60 58 52 56 58 55 66 66 64 64 62 68 69 68 69 69 69 70 70 73 76 75 75 77 80 76 74 75
74 74 72 74 71 70 74 75 67 61 63 60 54 55 59 64 63 66 70 70 72 74 75 73 75 77 76 76 77 79 81 82 82 83 82 80 79 80
75 73 73 77 76 77 79 78 72 68 66 59 52 55 53 60 69 77 77 78 80 81 80 75 76 78 77 80 80 82 84 86 87 89 87 87 85 86
77 73 74 80 79 83 82 78 77 78 77 81 76 68 69 69 69 75 76 75 79 85 83 81 82 84 85 86 86 88 89 90 90 90 90 89 89 90
85 82 87 87 85 81 83 86 85 85 82 76 72 75 68 69 73 77 80 80 80 81 82 81 82 81 82 82 85 87 89 90 91 93 94 96 97 97
86 85 85 88 90 89 88 87 85 80 81 79 78 77 74 76 74 78 81 82 83 83 82 81 82 80 83 86 88 89 92 94 95 95 96 98 100 100
87 87 87 91 90 88 84 84 84 82 81 80 81 81 80 85 79 79 85 88 87 87 87 88 87 86 86 89 90 92 93 93 96 99 101 102 103 104
79 85 89 89 89 89 91 94 94 92 87 87 86 83 82 85 84 84 90 91 90 92 92 93 95 94 93 95 97 98 98 97 99 99 101 100 102 105
87 88 92 94 95 92 94 95 98 96 98 90 89 90 89 90 90 92 92 94 95 94 95 95 98 99 101 103 102 102 102 102 101 102 102 103 105 106
88 90 91 98 105 106 101 107 104 101 96 94 93 94 96 100 96 97 96 91 91 93 93 95 99 101 106 108 108 106 105 106 107 108 109 110 109 112
101 101 100 100 99 101 102 104 106 106 105 102 100 96 95 98 95 99 103 103 100 99 98 100 98 97 98 97 102 104 104 106 104 106 110 111 112 111
104 105 105 105 106 105 106 107 110 113 112 111 108 106 105 108 106 107 111 113 108 105 103 101 101 101 99 99 103 104 105 107 106 107 109 110 112 113
110 110 110 111 111 109 106 106 107 108 109 110 113 112 112 112 111 114 113 111 110 110 111 108 105 103 105 110 112 106 106 104 104 105 101 102 106 110
107 107 107 108 108 109 107 106 106 107 108 109 112 113 116 119 119 119 120 118 118 119 120 118 117 114 112 113 114 114 114 115 112 112 113 112 112 116
101 102 103 103 105 105 106 106 107 107 106 109 111 117 118 122 125 125 126 126 125 125 125 126 124 124 121 122 125 125 125 124 123 126 123 125 126 125

GFSNE_250_spd_120.txt.gz
Wind_Speed
51 49 43 43 43 39 40 39 37 32 31 32 32 39 40 39 36 40 47 50 55 56 54 54 55 51 52 49 50 48 44 48 55 54 49 54 56 54
54 54 51 50 47 45 45 45 41 36 34 34 35 38 41 44 44 42 45 50 56 57 57 58 54 60 57 58 58 53 53 52 53 58 60 61 61 61
58 54 53 52 50 50 48 48 48 44 38 37 38 38 41 45 47 44 45 49 50 52 55 60 62 61 60 63 62 63 60 61 58 60 60 63 66 59
58 59 56 56 54 54 52 53 52 51 44 40 40 39 40 43 48 43 41 44 45 51 56 55 56 58 61 65 65 66 66 65 65 63 65 61 64 67
57 58 56 54 55 58 57 57 58 56 47 43 41 41 39 40 42 48 48 45 46 54 53 55 57 59 58 54 60 65 66 69 70 66 68 71 66 67
62 62 62 59 60 60 60 60 54 53 50 49 46 42 43 41 43 45 47 49 47 46 50 56 55 55 63 65 59 55 60 65 69 71 71 71 65 68
67 66 63 60 59 64 63 60 58 52 52 53 51 46 44 46 43 44 49 53 48 55 52 54 57 58 56 59 68 70 69 68 65 68 70 71 72 74
70 69 65 64 57 63 62 55 57 58 52 53 55 52 50 51 52 48 49 54 56 57 57 62 56 58 56 56 59 63 72 74 77 79 79 77 80 78
73 70 64 53 57 65 59 57 60 66 64 65 56 56 57 58 58 59 55 54 62 59 65 69 63 56 62 62 66 62 64 67 70 72 76 77 77 77
78 72 65 64 69 71 70 67 66 62 64 68 67 69 66 69 61 60 56 58 63 64 68 64 69 74 68 69 68 72 74 76 77 78 79 82 82 83
78 76 74 75 76 79 80 77 77 79 79 79 79 76 73 70 70 65 69 57 56 68 69 69 69 73 76 76 76 77 79 80 82 84 84 84 86 87
80 80 79 79 79 77 79 79 83 82 82 81 85 80 76 77 72 73 73 76 67 70 68 71 73 76 80 82 81 84 86 88 90 90 90 90 91 92
83 83 81 82 84 81 83 84 85 85 82 79 82 82 83 81 81 81 80 81 81 68 73 70 74 77 83 83 82 83 83 86 86 87 88 89 90 92
91 88 87 87 86 86 87 91 89 90 91 89 92 91 92 89 84 86 88 85 82 77 80 77 74 80 76 81 88 88 87 86 85 84 86 86 86 89
96 96 94 92 89 90 90 91 87 95 96 97 97 95 91 90 90 83 79 80 79 81 78 79 81 82 83 83 90 92 92 93 91 90 92 95 96 96
92 94 96 98 97 96 96 97 95 100 96 95 96 90 93 90 86 82 83 82 80 82 85 87 84 85 87 87 89 92 97 99 99 99 99 101 101 102
89 90 91 92 94 95 96 97 95 94 94 94 96 95 98 91 87 86 87 86 89 89 88 88 93 96 89 90 90 91 96 98 97 96 97 98 99 100
85 86 89 91 92 92 92 93 94 97 97 96 99 98 101 102 98 94 92 90 90 92 92 94 96 100 101 95 96 95 98 99 97 97 98 98 101 104
91 91 90 91 91 93 97 99 95 97 100 100 99 102 101 105 103 103 102 103 107 106 105 101 100 99 106 104 103 107 106 104 103 103 104 103 103 103
100 100 100 99 98 96 97 98 101 104 108 110 114 114 115 113 113 112 110 107 106 105 105 102 104 110 110 111 108 109 110 105 112 114 112 109 111 111
108 108 108 107 107 108 109 110 110 110 110 110 110 112 115 119 117 120 121 121 120 119 117 116 114 112 112 112 112 113 114 114 115 118 119 119 115 115
110 111 111 111 112 114 115 116 117 118 118 118 119 120 121 122 122 122 122 124 124 123 122 122 125 125 123 119 119 120 126 130 127 127 127 124 121 123
103 104 106 108 109 112 113 116 117 117 118 120 121 121 121 120 121 121 122 123 124 123 121 121 120 121 122 123 125 128 130 132 131 130 131 132 133 133

GFSNE_250_spd_123.txt.gz
Wind_Speed
47 46 47 49 49 52 49 44 42 43 40 44 39 37 34 33 31 37 38 38 38 45 49 47 48 51 56 51 55 54 54 55 48 48 49 49 47 48
50 47 49 51 53 55 53 50 46 46 43 45 45 41 41 39 37 35 40 42 42 42 44 49 51 56 56 56 57 56 58 55 56 55 56 56 57 56
44 47 54 53 49 53 53 52 52 52 45 49 45 46 46 46 42 38 38 42 46 45 46 47 48 52 56 58 58 57 59 59 63 61 59 60 58 59
52 47 52 58 56 57 56 56 53 55 51 51 51 51 49 52 48 41 39 40 45 46 48 48 52 58 58 59 59 63 63 61 60 62 64 64 66 65
60 61 62 59 57 56 58 56 57 56 54 53 54 54 51 52 50 47 42 39 37 45 49 49 50 49 49 56 59 59 58 59 56 54 56 61 64 65
69 65 63 65 60 58 61 60 59 58 58 58 59 56 59 54 52 52 48 43 40 40 43 48 51 48 47 57 53 50 54 58 61 58 52 52 54 56
78 78 72 69 68 72 69 64 63 61 62 63 60 62 61 57 54 52 50 46 43 42 43 44 46 47 49 48 49 54 56 58 60 62 71 71 70 71
76 78 79 79 77 70 72 69 67 66 62 66 64 59 57 55 51 52 56 50 51 49 49 48 52 52 54 58 59 57 53 57 57 58 60 63 67 69
81 84 84 77 77 79 76 75 74 72 68 70 67 65 61 60 63 62 63 63 57 59 59 55 55 55 58 61 62 62 63 63 59 59 63 66 70 70
84 86 90 86 83 82 81 81 78 77 72 71 67 61 61 65 63 64 60 63 65 66 69 66 63 61 57 62 66 67 66 67 68 69 71 74 72 71
91 90 93 94 89 88 84 85 82 83 78 75 72 70 71 66 67 67 72 72 70 73 73 73 68 62 60 57 64 69 74 75 75 75 77 80 81 80
90 91 94 100 97 94 94 90 88 84 84 81 81 78 81 79 81 85 85 83 83 76 75 77 75 66 65 72 72 73 72 72 76 80 77 77 77 78
91 93 95 97 100 99 94 89 86 86 85 85 86 89 88 90 91 91 91 88 88 87 85 83 77 80 82 79 79 79 75 75 76 77 77 81 82 83
88 89 91 92 93 94 94 90 90 90 90 89 90 90 90 90 89 90 88 89 87 86 85 85 85 85 88 82 82 82 75 76 80 83 79 80 80 78
86 88 89 90 92 95 96 96 95 94 94 92 93 95 94 94 95 95 95 91 92 90 89 90 92 91 85 87 79 79 80 75 72 81 83 84 84 88
85 86 88 91 92 92 94 99 101 99 95 94 93 94 90 91 96 98 98 97 96 99 99 98 90 87 87 83 80 79 83 82 82 84 87 89 87 88
84 85 88 90 90 92 94 95 99 105 108 106 103 100 98 96 96 97 99 96 93 98 94 91 90 89 91 87 87 88 87 86 89 90 89 93 94 96
92 92 90 90 91 93 96 98 100 101 103 105 107 108 105 105 105 104 103 99 94 94 98 99 96 93 89 90 89 91 90 92 92 87 90 95 99 101
99 100 100 101 100 98 98 99 101 102 102 102 103 104 105 107 109 108 106 109 103 107 105 103 99 100 104 99 95 97 98 99 99 95 94 99 102 107
106 105 105 103 103 106 107 108 108 107 106 105 106 105 105 106 107 108 109 108 110 112 111 109 110 111 109 109 108 103 103 106 104 106 111 110 107 108
108 109 110 111 112 110 110 109 108 107 107 106 105 104 105 107 109 110 110 109 111 112 113 112 113 114 116 113 112 110 109 111 113 112 113 110 110 115
106 107 107 108 110 112 112 113 114 113 112 113 112 112 111 110 110 110 111 113 116 115 115 119 121 123 123 121 122 124 123 125 124 123 124 125 125 124
100 102 103 106 108 110 112 114 114 116 116 117 118 118 119 119 119 119 118 117 118 119 120 125 130 131 131 131 129 130 129 126 126 128 130 130 132 133